| time (UTC) | temp C | wind direction | speed KPH | gust KPH | rain 1hr cm | rain 24hr cm | rain mn cm | humidity % | barometer mb |
| 20260503200601 | 16 | 202 | 6.4 | 14.5 | 0.00 | 0.00 | 0.00 | 41 | 1015.2 |
| 20260503200302 | 16 | 153 | 4.8 | 14.5 | 0.00 | 0.00 | 0.00 | 38 | 1015.2 |
| 20260503200200 | 16 | 153 | 4.8 | 14.5 | 0.00 | 0.00 | 0.00 | 39 | 1015.3 |
| 20260503200100 | 16 | 207 | 0.0 | 8.0 | 0.00 | 0.00 | 0.00 | 38 | 1015.3 |
| 20260503200005 | 16 | 202 | 3.2 | 8.0 | 0.00 | 0.00 | 0.00 | 39 | 1015.3 |
| 20260503195901 | 16 | 132 | 3.2 | 8.0 | 0.00 | 0.00 | 0.00 | 39 | 1015.2 |
| 20260503195759 | 16 | 173 | 3.2 | 8.0 | 0.00 | 0.00 | 0.00 | 40 | 1015.3 |
| 20260503195602 | 16 | 179 | 4.8 | 11.3 | 0.00 | 0.00 | 0.00 | 41 | 1015.3 |
| 20260503195501 | 16 | 341 | 3.2 | 12.9 | 0.00 | 0.00 | 0.00 | 40 | 1015.3 |
| 20260503195401 | 16 | 148 | 1.6 | 12.9 | 0.00 | 0.00 | 0.00 | 39 | 1015.3 |
| 20260503195300 | 16 | 145 | 6.4 | 17.7 | 0.00 | 0.00 | 0.00 | 40 | 1015.3 |
| 20260503195201 | 16 | 159 | 3.2 | 17.7 | 0.00 | 0.00 | 0.00 | 41 | 1015.3 |
| 20260503195100 | 16 | 144 | 0.0 | 17.7 | 0.00 | 0.00 | 0.00 | 39 | 1015.3 |
| 20260503195000 | 16 | 150 | 6.4 | 17.7 | 0.00 | 0.00 | 0.00 | 38 | 1015.4 |
| 20260503194901 | 16 | 178 | 6.4 | 17.7 | 0.00 | 0.00 | 0.00 | 40 | 1015.4 |
| 20260503194800 | 16 | 260 | 3.2 | 17.7 | 0.00 | 0.00 | 0.00 | 40 | 1015.5 |
| 20260503194700 | 16 | 308 | 6.4 | 17.7 | 0.00 | 0.00 | 0.00 | 38 | 1015.5 |
| 20260503194601 | 16 | 198 | 4.8 | 17.7 | 0.00 | 0.00 | 0.00 | 38 | 1015.4 |
| 20260503194501 | 16 | 208 | 12.9 | 17.7 | 0.00 | 0.00 | 0.00 | 39 | 1015.4 |
| 20260503194401 | 16 | 154 | 9.7 | 16.1 | 0.00 | 0.00 | 0.00 | 39 | 1015.4 |
| 20260503194300 | 16 | 284 | 1.6 | 14.5 | 0.00 | 0.00 | 0.00 | 38 | 1015.4 |
| 20260503194200 | 16 | 217 | 3.2 | 12.9 | 0.00 | 0.00 | 0.00 | 40 | 1015.5 |
| 20260503194103 | 16 | 191 | 0.0 | 12.9 | 0.00 | 0.00 | 0.00 | 40 | 1015.5 |
| 20260503194001 | 16 | 171 | 11.3 | 12.9 | 0.00 | 0.00 | 0.00 | 39 | 1015.5 |
| 20260503193901 | 16 | 179 | 3.2 | 12.9 | 0.00 | 0.00 | 0.00 | 38 | 1015.5 |
| 20260503193800 | 16 | 109 | 3.2 | 12.9 | 0.00 | 0.00 | 0.00 | 39 | 1015.7 |
| 20260503193703 | 16 | 202 | 6.4 | 12.9 | 0.00 | 0.00 | 0.00 | 38 | 1015.7 |
| 20260503193602 | 16 | 137 | 4.8 | 24.1 | 0.00 | 0.00 | 0.00 | 39 | 1015.7 |
| 20260503193500 | 16 | 306 | 3.2 | 24.1 | 0.00 | 0.00 | 0.00 | 38 | 1015.8 |
| 20260503193401 | 16 | 208 | 3.2 | 24.1 | 0.00 | 0.00 | 0.00 | 37 | 1015.9 |
| 20260503193300 | 16 | 252 | 3.2 | 24.1 | 0.00 | 0.00 | 0.00 | 38 | 1015.9 |
| 20260503193200 | 16 | 299 | 6.4 | 24.1 | 0.00 | 0.00 | 0.00 | 38 | 1015.9 |
| 20260503193000 | 16 | 300 | 4.8 | 24.1 | 0.00 | 0.00 | 0.00 | 37 | 1016.0 |
| 20260503192902 | 16 | 132 | 1.6 | 24.1 | 0.00 | 0.00 | 0.00 | 38 | 1016.0 |
| 20260503192802 | 16 | 313 | 3.2 | 24.1 | 0.00 | 0.00 | 0.00 | 36 | 1016.1 |
| 20260503192700 | 16 | 183 | 12.9 | 16.1 | 0.00 | 0.00 | 0.00 | 39 | 1016.0 |
| 20260503192600 | 16 | 200 | 3.2 | 16.1 | 0.00 | 0.00 | 0.00 | 37 | 1016.0 |
| 20260503192459 | 16 | 210 | 12.9 | 16.1 | 0.00 | 0.00 | 0.00 | 37 | 1016.1 |
| 20260503192400 | 16 | 207 | 6.4 | 16.1 | 0.00 | 0.00 | 0.00 | 37 | 1016.1 |
| 20260503192301 | 16 | 316 | 3.2 | 16.1 | 0.00 | 0.00 | 0.00 | 38 | 1016.1 |
| 20260503192200 | 16 | 190 | 1.6 | 17.7 | 0.00 | 0.00 | 0.00 | 38 | 1016.2 |
| 20260503192059 | 16 | 218 | 1.6 | 14.5 | 0.00 | 0.00 | 0.00 | 37 | 1016.2 |
| 20260503191801 | 16 | 140 | 0.0 | 12.9 | 0.00 | 0.00 | 0.00 | 37 | 1016.2 |
| 20260503191700 | 16 | 227 | 3.2 | 12.9 | 0.00 | 0.00 | 0.00 | 38 | 1016.2 |
| 20260503191600 | 16 | 217 | 4.8 | 12.9 | 0.00 | 0.00 | 0.00 | 36 | 1016.1 |
| 20260503191501 | 16 | 168 | 9.7 | 16.1 | 0.00 | 0.00 | 0.00 | 36 | 1016.2 |
| 20260503191301 | 17 | 235 | 1.6 | 19.3 | 0.00 | 0.00 | 0.00 | 38 | 1016.1 |
| 20260503191200 | 17 | 196 | 4.8 | 19.3 | 0.00 | 0.00 | 0.00 | 36 | 1016.2 |
| 20260503191101 | 17 | 218 | 9.7 | 19.3 | 0.00 | 0.00 | 0.00 | 35 | 1016.2 |
| 20260503191002 | 17 | 98 | 1.6 | 19.3 | 0.00 | 0.00 | 0.00 | 36 | 1016.2 |
| 20260503190901 | 17 | 344 | 1.6 | 19.3 | 0.00 | 0.00 | 0.00 | 36 | 1016.3 |
| 20260503190800 | 17 | 219 | 1.6 | 19.3 | 0.00 | 0.00 | 0.00 | 37 | 1016.2 |
| 20260503190700 | 17 | 214 | 3.2 | 19.3 | 0.00 | 0.00 | 0.00 | 37 | 1016.3 |
| 20260503190600 | 17 | 198 | 6.4 | 19.3 | 0.00 | 0.00 | 0.00 | 38 | 1016.2 |
| 20260503190400 | 17 | 165 | 8.0 | 16.1 | 0.00 | 0.00 | 0.00 | 38 | 1016.3 |
| 20260503190300 | 17 | 211 | 4.8 | 16.1 | 0.00 | 0.00 | 0.00 | 36 | 1016.4 |
| 20260503190201 | 17 | 176 | 6.4 | 16.1 | 0.00 | 0.00 | 0.00 | 38 | 1016.5 |
| 20260503190101 | 17 | 175 | 4.8 | 16.1 | 0.00 | 0.00 | 0.00 | 37 | 1016.4 |
| 20260503190001 | 17 | 162 | 3.2 | 16.1 | 0.00 | 0.00 | 0.00 | 36 | 1016.5 |
| 20260503185859 | 17 | 187 | 1.6 | 16.1 | 0.00 | 0.00 | 0.00 | 38 | 1016.4 |
| 20260503185802 | 17 | 92 | 4.8 | 19.3 | 0.00 | 0.00 | 0.00 | 38 | 1016.3 |
| 20260503185701 | 17 | 286 | 16.1 | 19.3 | 0.00 | 0.00 | 0.00 | 39 | 1016.4 |
| 20260503185604 | 17 | 136 | 4.8 | 19.3 | 0.00 | 0.00 | 0.00 | 41 | 1016.4 |
| 20260503185501 | 17 | 298 | 6.4 | 19.3 | 0.00 | 0.00 | 0.00 | 43 | 1016.4 |
| 20260503185401 | 16 | 157 | 0.0 | 19.3 | 0.00 | 0.00 | 0.00 | 42 | 1016.4 |
| 20260503185300 | 16 | 185 | 1.6 | 19.3 | 0.00 | 0.00 | 0.00 | 41 | 1016.2 |
| 20260503185159 | 16 | 178 | 6.4 | 19.3 | 0.00 | 0.00 | 0.00 | 38 | 1016.3 |
| 20260503185102 | 16 | 166 | 1.6 | 19.3 | 0.00 | 0.00 | 0.00 | 35 | 1016.2 |
| 20260503185000 | 16 | 148 | 16.1 | 20.9 | 0.00 | 0.00 | 0.00 | 37 | 1016.4 |
| 20260503184901 | 16 | 167 | 6.4 | 9.7 | 0.00 | 0.00 | 0.00 | 39 | 1016.4 |
| 20260503184803 | 16 | 161 | 1.6 | 9.7 | 0.00 | 0.00 | 0.00 | 38 | 1016.5 |
| 20260503184700 | 16 | 174 | 3.2 | 11.3 | 0.00 | 0.00 | 0.00 | 37 | 1016.6 |
| 20260503184600 | 16 | 174 | 3.2 | 11.3 | 0.00 | 0.00 | 0.00 | 37 | 1016.6 |
| 20260503184501 | 16 | 198 | 4.8 | 14.5 | 0.00 | 0.00 | 0.00 | 40 | 1016.6 |
| 20260503184400 | 16 | 191 | 4.8 | 14.5 | 0.00 | 0.00 | 0.00 | 39 | 1016.6 |
| 20260503184301 | 16 | 136 | 4.8 | 14.5 | 0.00 | 0.00 | 0.00 | 39 | 1016.6 |
| 20260503184201 | 16 | 198 | 6.4 | 14.5 | 0.00 | 0.00 | 0.00 | 38 | 1016.6 |
| 20260503184102 | 16 | 216 | 4.8 | 14.5 | 0.00 | 0.00 | 0.00 | 40 | 1016.6 |
| 20260503183901 | 16 | 311 | 1.6 | 14.5 | 0.00 | 0.00 | 0.00 | 37 | 1016.7 |
| 20260503183802 | 16 | 192 | 9.7 | 17.7 | 0.00 | 0.00 | 0.00 | 38 | 1016.7 |
| 20260503183700 | 16 | 185 | 6.4 | 17.7 | 0.00 | 0.00 | 0.00 | 39 | 1016.8 |
| 20260503183600 | 16 | 275 | 3.2 | 17.7 | 0.00 | 0.00 | 0.00 | 39 | 1016.8 |
| 20260503183500 | 16 | 233 | 12.9 | 17.7 | 0.00 | 0.00 | 0.00 | 42 | 1016.7 |
| 20260503183300 | 16 | 205 | 1.6 | 17.7 | 0.00 | 0.00 | 0.00 | 41 | 1016.8 |
| 20260503183201 | 16 | 148 | 4.8 | 17.7 | 0.00 | 0.00 | 0.00 | 40 | 1016.7 |
| 20260503183000 | 16 | 251 | 4.8 | 17.7 | 0.00 | 0.00 | 0.00 | 38 | 1016.9 |
| 20260503182859 | 16 | 221 | 11.3 | 11.3 | 0.00 | 0.00 | 0.00 | 40 | 1016.8 |
| 20260503182800 | 16 | 187 | 1.6 | 11.3 | 0.00 | 0.00 | 0.00 | 41 | 1016.7 |
| 20260503182559 | 16 | 195 | 8.0 | 11.3 | 0.00 | 0.00 | 0.00 | 40 | 1016.8 |
| 20260503182500 | 16 | 206 | 0.0 | 11.3 | 0.00 | 0.00 | 0.00 | 42 | 1016.8 |
| 20260503182402 | 16 | 202 | 3.2 | 11.3 | 0.00 | 0.00 | 0.00 | 39 | 1016.7 |
| 20260503182304 | 16 | 195 | 3.2 | 16.1 | 0.00 | 0.00 | 0.00 | 39 | 1016.9 |
| 20260503182200 | 16 | 222 | 0.0 | 16.1 | 0.00 | 0.00 | 0.00 | 38 | 1016.9 |
| 20260503182102 | 16 | 146 | 3.2 | 16.1 | 0.00 | 0.00 | 0.00 | 39 | 1016.9 |
| 20260503182000 | 16 | 346 | 4.8 | 16.1 | 0.00 | 0.00 | 0.00 | 37 | 1016.9 |
| 20260503181901 | 16 | 329 | 1.6 | 16.1 | 0.00 | 0.00 | 0.00 | 39 | 1016.9 |
| 20260503181759 | 16 | 171 | 3.2 | 16.1 | 0.00 | 0.00 | 0.00 | 40 | 1016.9 |
| 20260503181700 | 16 | 202 | 1.6 | 16.1 | 0.00 | 0.00 | 0.00 | 39 | 1016.9 |
| 20260503181600 | 16 | 169 | 6.4 | 16.1 | 0.00 | 0.00 | 0.00 | 35 | 1016.8 |
| 20260503181501 | 16 | 175 | 4.8 | 16.1 | 0.00 | 0.00 | 0.00 | 35 | 1016.9 |
| 20260503181400 | 16 | 158 | 14.5 | 14.5 | 0.00 | 0.00 | 0.00 | 38 | 1016.9 |
| 20260503181300 | 16 | 319 | 1.6 | 12.9 | 0.00 | 0.00 | 0.00 | 39 | 1016.9 |
| 20260503181203 | 16 | 202 | 3.2 | 12.9 | 0.00 | 0.00 | 0.00 | 40 | 1016.9 |
| 20260503181059 | 16 | 215 | 1.6 | 12.9 | 0.00 | 0.00 | 0.00 | 40 | 1017.0 |
| 20260503181001 | 16 | 242 | 0.0 | 12.9 | 0.00 | 0.00 | 0.00 | 39 | 1017.0 |
| 20260503180902 | 16 | 175 | 4.8 | 12.9 | 0.00 | 0.00 | 0.00 | 39 | 1016.9 |
| 20260503180802 | 16 | 190 | 4.8 | 12.9 | 0.00 | 0.00 | 0.00 | 38 | 1016.9 |
| 20260503180700 | 16 | 200 | 4.8 | 14.5 | 0.00 | 0.00 | 0.00 | 36 | 1017.1 |
| 20260503180601 | 16 | 300 | 0.0 | 14.5 | 0.00 | 0.00 | 0.00 | 37 | 1017.1 |
| 20260503180459 | 16 | 150 | 8.0 | 14.5 | 0.00 | 0.00 | 0.00 | 38 | 1017.2 |
| 20260503180402 | 16 | 163 | 3.2 | 14.5 | 0.00 | 0.00 | 0.00 | 40 | 1017.2 |
| 20260503180302 | 16 | 193 | 4.8 | 14.5 | 0.00 | 0.00 | 0.00 | 38 | 1017.2 |
| 20260503180200 | 16 | 162 | 1.6 | 14.5 | 0.00 | 0.00 | 0.00 | 39 | 1017.3 |
| 20260503180100 | 16 | 313 | 3.2 | 14.5 | 0.00 | 0.00 | 0.00 | 38 | 1017.3 |
| 20260503180002 | 16 | 248 | 3.2 | 14.5 | 0.00 | 0.00 | 0.00 | 36 | 1017.3 |
| 20260503175802 | 16 | 215 | 9.7 | 14.5 | 0.00 | 0.00 | 0.00 | 40 | 1017.4 |
| 20260503175700 | 16 | 174 | 1.6 | 14.5 | 0.00 | 0.00 | 0.00 | 43 | 1017.3 |
| 20260503175601 | 16 | 180 | 8.0 | 14.5 | 0.00 | 0.00 | 0.00 | 37 | 1017.4 |
| 20260503175400 | 16 | 190 | 4.8 | 16.1 | 0.00 | 0.00 | 0.00 | 39 | 1017.3 |
| 20260503175304 | 16 | 181 | 8.0 | 12.9 | 0.00 | 0.00 | 0.00 | 38 | 1017.3 |
| 20260503175200 | 16 | 196 | 4.8 | 12.9 | 0.00 | 0.00 | 0.00 | 39 | 1017.3 |
| 20260503175100 | 16 | 307 | 0.0 | 14.5 | 0.00 | 0.00 | 0.00 | 40 | 1017.3 |
| 20260503174902 | 16 | 315 | 3.2 | 14.5 | 0.00 | 0.00 | 0.00 | 39 | 1017.2 |
| 20260503174802 | 16 | 147 | 4.8 | 14.5 | 0.00 | 0.00 | 0.00 | 37 | 1017.3 |
| 20260503174700 | 16 | 221 | 4.8 | 17.7 | 0.00 | 0.00 | 0.00 | 39 | 1017.3 |
| 20260503174600 | 16 | 227 | 0.0 | 17.7 | 0.00 | 0.00 | 0.00 | 36 | 1017.3 |
| 20260503174503 | 16 | 240 | 6.4 | 17.7 | 0.00 | 0.00 | 0.00 | 40 | 1017.3 |
| 20260503174300 | 16 | 212 | 0.0 | 17.7 | 0.00 | 0.00 | 0.00 | 39 | 1017.5 |
| 20260503174200 | 15 | 195 | 3.2 | 17.7 | 0.00 | 0.00 | 0.00 | 39 | 1017.4 |
| 20260503174059 | 15 | 196 | 8.0 | 17.7 | 0.00 | 0.00 | 0.00 | 39 | 1017.4 |
| 20260503174000 | 15 | 209 | 6.4 | 17.7 | 0.00 | 0.00 | 0.00 | 39 | 1017.4 |
| 20260503173700 | 15 | 297 | 6.4 | 17.7 | 0.00 | 0.00 | 0.00 | 38 | 1017.5 |
| 20260503173501 | 15 | 225 | 3.2 | 16.1 | 0.00 | 0.00 | 0.00 | 38 | 1017.5 |
| 20260503173400 | 15 | 298 | 8.0 | 14.5 | 0.00 | 0.00 | 0.00 | 41 | 1017.5 |
| 20260503173259 | 15 | 174 | 8.0 | 14.5 | 0.00 | 0.00 | 0.00 | 39 | 1017.5 |
| 20260503173202 | 15 | 86 | 1.6 | 14.5 | 0.00 | 0.00 | 0.00 | 38 | 1017.5 |
| 20260503173101 | 15 | 189 | 3.2 | 14.5 | 0.00 | 0.00 | 0.00 | 38 | 1017.6 |
| 20260503173000 | 15 | 216 | 3.2 | 14.5 | 0.00 | 0.00 | 0.00 | 37 | 1017.6 |
| 20260503172902 | 15 | 173 | 9.7 | 14.5 | 0.00 | 0.00 | 0.00 | 40 | 1017.6 |
| 20260503172801 | 15 | 222 | 3.2 | 14.5 | 0.00 | 0.00 | 0.00 | 37 | 1017.7 |
| 20260503172701 | 15 | 190 | 3.2 | 11.3 | 0.00 | 0.00 | 0.00 | 41 | 1017.7 |
| 20260503172600 | 15 | 257 | 11.3 | 14.5 | 0.00 | 0.00 | 0.00 | 39 | 1017.6 |
| 20260503172500 | 15 | 229 | 1.6 | 14.5 | 0.00 | 0.00 | 0.00 | 39 | 1017.5 |
| 20260503172400 | 15 | 171 | 11.3 | 14.5 | 0.00 | 0.00 | 0.00 | 39 | 1017.6 |
| 20260503172300 | 15 | 238 | 3.2 | 14.5 | 0.00 | 0.00 | 0.00 | 38 | 1017.7 |
| 20260503172202 | 15 | 186 | 6.4 | 14.5 | 0.00 | 0.00 | 0.00 | 39 | 1017.7 |
| 20260503172102 | 15 | 129 | 4.8 | 14.5 | 0.00 | 0.00 | 0.00 | 40 | 1017.8 |
| 20260503172002 | 15 | 210 | 8.0 | 14.5 | 0.00 | 0.00 | 0.00 | 38 | 1017.8 |
| 20260503171800 | 15 | 190 | 8.0 | 14.5 | 0.00 | 0.00 | 0.00 | 40 | 1017.9 |
| 20260503171701 | 15 | 196 | 8.0 | 14.5 | 0.00 | 0.00 | 0.00 | 40 | 1017.9 |
| 20260503171601 | 15 | 181 | 3.2 | 11.3 | 0.00 | 0.00 | 0.00 | 41 | 1018.0 |
| 20260503171459 | 15 | 195 | 4.8 | 11.3 | 0.00 | 0.00 | 0.00 | 39 | 1018.1 |
| 20260503171401 | 15 | 133 | 4.8 | 12.9 | 0.00 | 0.00 | 0.00 | 38 | 1018.1 |
| 20260503171200 | 15 | 131 | 4.8 | 16.1 | 0.00 | 0.00 | 0.00 | 38 | 1018.2 |
| 20260503171102 | 15 | 221 | 8.0 | 16.1 | 0.00 | 0.00 | 0.00 | 38 | 1018.2 |
| 20260503171000 | 15 | 150 | 4.8 | 16.1 | 0.00 | 0.00 | 0.00 | 39 | 1018.2 |
| 20260503170900 | 15 | 31 | 1.6 | 16.1 | 0.00 | 0.00 | 0.00 | 40 | 1018.2 |
| 20260503170801 | 15 | 157 | 0.0 | 16.1 | 0.00 | 0.00 | 0.00 | 39 | 1018.2 |
| 20260503170701 | 15 | 123 | 3.2 | 16.1 | 0.00 | 0.00 | 0.00 | 40 | 1018.2 |
| 20260503170600 | 15 | 200 | 3.2 | 16.1 | 0.00 | 0.00 | 0.00 | 40 | 1018.3 |
| 20260503170501 | 15 | 250 | 1.6 | 16.1 | 0.00 | 0.00 | 0.00 | 39 | 1018.3 |
| 20260503170401 | 15 | 200 | 6.4 | 16.1 | 0.00 | 0.00 | 0.00 | 41 | 1018.3 |
| 20260503170200 | 15 | 194 | 4.8 | 11.3 | 0.00 | 0.00 | 0.00 | 40 | 1018.3 |
| 20260503160159 | 15 | 288 | 3.2 | 14.5 | 0.00 | 0.00 | 0.00 | 46 | 1019.0 |
| 20260503151002 | 12 | 245 | 0.0 | 12.9 | 0.00 | 0.00 | 0.00 | 47 | 1019.5 |
| 20260503150901 | 12 | 142 | 6.4 | 12.9 | 0.00 | 0.00 | 0.00 | 48 | 1019.5 |
| 20260503150801 | 12 | 176 | 8.0 | 12.9 | 0.00 | 0.00 | 0.00 | 47 | 1019.5 |
| 20260503150701 | 12 | 223 | 3.2 | 12.9 | 0.00 | 0.00 | 0.00 | 48 | 1019.6 |
| 20260503150601 | 12 | 195 | 8.0 | 12.9 | 0.00 | 0.00 | 0.00 | 48 | 1019.6 |
| 20260503150502 | 12 | 180 | 6.4 | 12.9 | 0.00 | 0.00 | 0.00 | 48 | 1019.6 |
| 20260503150401 | 12 | 149 | 1.6 | 11.3 | 0.00 | 0.00 | 0.00 | 49 | 1019.6 |
| 20260503150301 | 12 | 192 | 8.0 | 11.3 | 0.00 | 0.00 | 0.00 | 49 | 1019.5 |
| 20260503150201 | 12 | 226 | 6.4 | 11.3 | 0.00 | 0.00 | 0.00 | 50 | 1019.5 |
| 20260503140300 | 10 | 300 | 0.0 | 8.0 | 0.00 | 0.00 | 0.00 | 58 | 1019.4 |
| 20260503140159 | 10 | 302 | 0.0 | 8.0 | 0.00 | 0.00 | 0.00 | 59 | 1019.4 |
| 20260503131359 | 8 | 15 | 1.6 | 14.5 | 0.00 | 0.00 | 0.00 | 58 | 1019.4 |
| 20260503131159 | 8 | 307 | 3.2 | 14.5 | 0.00 | 0.00 | 0.00 | 58 | 1019.4 |
| 20260503131059 | 8 | 236 | 3.2 | 14.5 | 0.00 | 0.00 | 0.00 | 57 | 1019.4 |
| 20260503130959 | 8 | 219 | 1.6 | 11.3 | 0.00 | 0.00 | 0.00 | 57 | 1019.3 |
| 20260503130759 | 8 | 204 | 3.2 | 9.7 | 0.00 | 0.00 | 0.00 | 59 | 1019.4 |
| 20260503130659 | 8 | 144 | 0.0 | 9.7 | 0.00 | 0.00 | 0.00 | 59 | 1019.4 |
| 20260503130500 | 7 | 209 | 1.6 | 9.7 | 0.00 | 0.00 | 0.00 | 61 | 1019.4 |
| 20260503130401 | 7 | 235 | 0.0 | 11.3 | 0.00 | 0.00 | 0.00 | 60 | 1019.4 |
| 20260503130259 | 7 | 277 | 3.2 | 14.5 | 0.00 | 0.00 | 0.00 | 60 | 1019.5 |
| 20260503130159 | 7 | 205 | 3.2 | 14.5 | 0.00 | 0.00 | 0.00 | 61 | 1019.4 |
| 20260503120200 | 6 | 126 | 3.2 | 11.3 | 0.00 | 0.00 | 0.00 | 64 | 1019.4 |
| 20260503110658 | 3 | 232 | 0.0 | 8.0 | 0.00 | 0.00 | 0.00 | 72 | 1018.7 |
| 20260503110558 | 3 | 185 | 4.8 | 8.0 | 0.00 | 0.00 | 0.00 | 72 | 1018.7 |
| 20260503110459 | 3 | 199 | 0.0 | 8.0 | 0.00 | 0.00 | 0.00 | 72 | 1018.7 |
| 20260503110359 | 3 | 184 | 1.6 | 8.0 | 0.00 | 0.00 | 0.00 | 72 | 1018.7 |
| 20260503110259 | 3 | 190 | 3.2 | 6.4 | 0.00 | 0.00 | 0.00 | 72 | 1018.7 |
| 20260503110158 | 3 | 169 | 6.4 | 6.4 | 0.00 | 0.00 | 0.00 | 72 | 1018.7 |
| 20260503100259 | 2 | 260 | 0.0 | 0.0 | 0.00 | 0.00 | 0.00 | 77 | 1018.2 |
| 20260503100159 | 2 | 260 | 0.0 | 0.0 | 0.00 | 0.00 | 0.00 | 77 | 1018.2 |
| 20260503090459 | 1 | 341 | 0.0 | 0.0 | 0.00 | 0.00 | 0.00 | 84 | 1018.3 |
| 20260503090401 | 1 | 342 | 0.0 | 0.0 | 0.00 | 0.00 | 0.00 | 84 | 1018.3 |
| 20260503090259 | 1 | 342 | 0.0 | 0.0 | 0.00 | 0.00 | 0.00 | 84 | 1018.3 |
| 20260503090201 | 1 | 342 | 0.0 | 0.0 | 0.00 | 0.00 | 0.00 | 85 | 1018.3 |
| 20260503081559 | 0 | 342 | 0.0 | 0.0 | 0.00 | 0.00 | 0.00 | 86 | 1018.1 |
| 20260503081459 | 0 | 342 | 0.0 | 0.0 | 0.00 | 0.00 | 0.00 | 86 | 1018.1 |
| 20260503081358 | 0 | 342 | 0.0 | 0.0 | 0.00 | 0.00 | 0.00 | 86 | 1018.2 |
| 20260503081259 | 0 | 342 | 0.0 | 0.0 | 0.00 | 0.00 | 0.00 | 86 | 1018.1 |
| 20260503080959 | 0 | 342 | 0.0 | 0.0 | 0.00 | 0.00 | 0.00 | 86 | 1018.1 |
| 20260503080859 | 0 | 342 | 0.0 | 0.0 | 0.00 | 0.00 | 0.00 | 86 | 1018.1 |
| 20260503080758 | 0 | 342 | 0.0 | 0.0 | 0.00 | 0.00 | 0.00 | 86 | 1018.1 |
| 20260503080659 | 0 | 342 | 0.0 | 0.0 | 0.00 | 0.00 | 0.00 | 86 | 1018.1 |
| 20260503080559 | 0 | 342 | 0.0 | 0.0 | 0.00 | 0.00 | 0.00 | 86 | 1018.1 |
| 20260503080458 | 0 | 342 | 0.0 | 0.0 | 0.00 | 0.00 | 0.00 | 86 | 1018.1 |
| 20260503080359 | 0 | 342 | 0.0 | 0.0 | 0.00 | 0.00 | 0.00 | 86 | 1018.1 |
| 20260503080259 | 0 | 342 | 0.0 | 0.0 | 0.00 | 0.00 | 0.00 | 86 | 1018.1 |
| 20260503080159 | 0 | 342 | 0.0 | 0.0 | 0.00 | 0.00 | 0.00 | 86 | 1018.0 |
| 20260503072858 | 1 | 342 | 0.0 | 0.0 | 0.00 | 0.00 | 0.00 | 86 | 1017.8 |
| 20260503072758 | 0 | 342 | 0.0 | 0.0 | 0.00 | 0.00 | 0.00 | 86 | 1017.9 |
| 20260503072658 | 0 | 342 | 0.0 | 0.0 | 0.00 | 0.00 | 0.00 | 86 | 1017.8 |
| 20260503072558 | 0 | 342 | 0.0 | 0.0 | 0.00 | 0.00 | 0.00 | 86 | 1017.8 |
| 20260503072359 | 1 | 342 | 0.0 | 0.0 | 0.00 | 0.00 | 0.00 | 86 | 1017.8 |
| 20260503072257 | 1 | 342 | 0.0 | 0.0 | 0.00 | 0.00 | 0.00 | 86 | 1017.9 |
| 20260503072157 | 1 | 342 | 0.0 | 0.0 | 0.00 | 0.00 | 0.00 | 86 | 1017.9 |
| 20260503072059 | 1 | 342 | 0.0 | 0.0 | 0.00 | 0.00 | 0.00 | 86 | 1017.8 |
| 20260503071957 | 1 | 342 | 0.0 | 0.0 | 0.00 | 0.00 | 0.00 | 86 | 1017.8 |
| 20260503071857 | 1 | 342 | 0.0 | 0.0 | 0.00 | 0.00 | 0.00 | 86 | 1017.8 |
| 20260503071757 | 1 | 342 | 0.0 | 0.0 | 0.00 | 0.00 | 0.00 | 86 | 1017.9 |
| 20260503071658 | 1 | 342 | 0.0 | 0.0 | 0.00 | 0.00 | 0.00 | 86 | 1017.9 |
| 20260503071458 | 1 | 342 | 0.0 | 0.0 | 0.00 | 0.00 | 0.00 | 86 | 1017.8 |
| 20260503071358 | 1 | 342 | 0.0 | 0.0 | 0.00 | 0.00 | 0.00 | 86 | 1017.8 |
| 20260503071257 | 1 | 342 | 0.0 | 0.0 | 0.00 | 0.00 | 0.00 | 86 | 1017.9 |
| 20260503071058 | 0 | 342 | 0.0 | 0.0 | 0.00 | 0.00 | 0.00 | 85 | 1017.8 |
| 20260503070958 | 0 | 342 | 0.0 | 0.0 | 0.00 | 0.00 | 0.00 | 85 | 1017.9 |
| 20260503070859 | 0 | 342 | 0.0 | 0.0 | 0.00 | 0.00 | 0.00 | 85 | 1017.9 |
| 20260503070758 | 0 | 342 | 0.0 | 0.0 | 0.00 | 0.00 | 0.00 | 85 | 1017.9 |
| 20260503070658 | 0 | 342 | 0.0 | 0.0 | 0.00 | 0.00 | 0.00 | 85 | 1017.9 |
| 20260503070458 | 0 | 342 | 0.0 | 0.0 | 0.00 | 0.00 | 0.00 | 85 | 1017.9 |
| 20260503070359 | 0 | 342 | 0.0 | 0.0 | 0.00 | 0.00 | 0.00 | 85 | 1017.9 |
| 20260503070258 | 0 | 342 | 0.0 | 0.0 | 0.00 | 0.00 | 0.00 | 85 | 1018.0 |
| 20260503070159 | 0 | 342 | 0.0 | 0.0 | 0.00 | 0.00 | 0.00 | 85 | 1017.9 |
| 20260503060259 | 1 | 342 | 0.0 | 0.0 | 0.00 | 0.00 | 0.00 | 82 | 1018.3 |
| 20260503060159 | 1 | 342 | 0.0 | 0.0 | 0.00 | 0.00 | 0.00 | 82 | 1018.4 |
| 20260503054958 | 1 | 342 | 0.0 | 0.0 | 0.00 | 0.00 | 0.00 | 82 | 1018.2 |
| 20260503054858 | 1 | 342 | 0.0 | 0.0 | 0.00 | 0.00 | 0.00 | 82 | 1018.3 |
| 20260503054758 | 1 | 342 | 0.0 | 0.0 | 0.00 | 0.00 | 0.00 | 82 | 1018.3 |
| 20260503054559 | 1 | 342 | 0.0 | 0.0 | 0.00 | 0.00 | 0.00 | 82 | 1018.4 |
| 20260503054459 | 1 | 342 | 0.0 | 0.0 | 0.00 | 0.00 | 0.00 | 82 | 1018.4 |
| 20260503054259 | 1 | 342 | 0.0 | 0.0 | 0.00 | 0.00 | 0.00 | 82 | 1018.4 |
| 20260503054201 | 1 | 342 | 0.0 | 0.0 | 0.00 | 0.00 | 0.00 | 82 | 1018.3 |
| 20260503054100 | 1 | 342 | 0.0 | 0.0 | 0.00 | 0.00 | 0.00 | 81 | 1018.4 |
| 20260503053659 | 1 | 342 | 0.0 | 0.0 | 0.00 | 0.00 | 0.00 | 81 | 1018.4 |
| 20260503053458 | 1 | 342 | 0.0 | 0.0 | 0.00 | 0.00 | 0.00 | 81 | 1018.3 |
| 20260503053400 | 1 | 342 | 0.0 | 0.0 | 0.00 | 0.00 | 0.00 | 82 | 1018.4 |
| 20260503053258 | 1 | 342 | 0.0 | 0.0 | 0.00 | 0.00 | 0.00 | 81 | 1018.3 |
| 20260503053200 | 1 | 342 | 0.0 | 0.0 | 0.00 | 0.00 | 0.00 | 81 | 1018.3 |
| 20260503053101 | 1 | 342 | 0.0 | 0.0 | 0.00 | 0.00 | 0.00 | 82 | 1018.4 |
| 20260503052958 | 1 | 342 | 0.0 | 0.0 | 0.00 | 0.00 | 0.00 | 82 | 1018.4 |
| 20260503052859 | 1 | 342 | 0.0 | 0.0 | 0.00 | 0.00 | 0.00 | 82 | 1018.4 |
| 20260503052800 | 1 | 342 | 0.0 | 0.0 | 0.00 | 0.00 | 0.00 | 82 | 1018.4 |
| 20260503052659 | 1 | 342 | 0.0 | 0.0 | 0.00 | 0.00 | 0.00 | 82 | 1018.5 |
| 20260503052601 | 1 | 342 | 0.0 | 0.0 | 0.00 | 0.00 | 0.00 | 82 | 1018.4 |
| 20260503052359 | 1 | 342 | 0.0 | 0.0 | 0.00 | 0.00 | 0.00 | 82 | 1018.4 |
| 20260503052259 | 1 | 342 | 0.0 | 0.0 | 0.00 | 0.00 | 0.00 | 82 | 1018.4 |
| 20260503052200 | 1 | 342 | 0.0 | 0.0 | 0.00 | 0.00 | 0.00 | 82 | 1018.4 |
| 20260503052059 | 1 | 342 | 0.0 | 0.0 | 0.00 | 0.00 | 0.00 | 82 | 1018.4 |
| 20260503051900 | 1 | 342 | 0.0 | 0.0 | 0.00 | 0.00 | 0.00 | 82 | 1018.3 |
| 20260503051759 | 1 | 342 | 0.0 | 0.0 | 0.00 | 0.00 | 0.00 | 82 | 1018.3 |
| 20260503051659 | 1 | 342 | 0.0 | 0.0 | 0.00 | 0.00 | 0.00 | 82 | 1018.4 |
| 20260503051559 | 1 | 342 | 0.0 | 0.0 | 0.00 | 0.00 | 0.00 | 81 | 1018.4 |
| 20260503051458 | 1 | 342 | 0.0 | 0.0 | 0.00 | 0.00 | 0.00 | 81 | 1018.4 |
| 20260503051358 | 1 | 342 | 0.0 | 0.0 | 0.00 | 0.00 | 0.00 | 81 | 1018.4 |
| 20260503051258 | 1 | 342 | 0.0 | 0.0 | 0.00 | 0.00 | 0.00 | 81 | 1018.3 |
| 20260503051159 | 1 | 342 | 0.0 | 0.0 | 0.00 | 0.00 | 0.00 | 81 | 1018.3 |
| 20260503051058 | 1 | 342 | 0.0 | 0.0 | 0.00 | 0.00 | 0.00 | 81 | 1018.3 |
| 20260503050900 | 1 | 342 | 0.0 | 0.0 | 0.00 | 0.00 | 0.00 | 81 | 1018.3 |
| 20260503050800 | 1 | 342 | 0.0 | 0.0 | 0.00 | 0.00 | 0.00 | 81 | 1018.3 |
| 20260503050701 | 1 | 342 | 0.0 | 0.0 | 0.00 | 0.00 | 0.00 | 81 | 1018.3 |
| 20260503050559 | 1 | 342 | 0.0 | 0.0 | 0.00 | 0.00 | 0.00 | 81 | 1018.3 |
| 20260503050459 | 1 | 342 | 0.0 | 0.0 | 0.00 | 0.00 | 0.00 | 81 | 1018.3 |
| 20260503050401 | 1 | 342 | 0.0 | 0.0 | 0.00 | 0.00 | 0.00 | 81 | 1018.4 |
| 20260503050258 | 1 | 342 | 0.0 | 0.0 | 0.00 | 0.00 | 0.00 | 80 | 1018.3 |
| 20260503050159 | 1 | 342 | 0.0 | 0.0 | 0.00 | 0.00 | 0.00 | 80 | 1018.3 |
| 20260503050059 | 1 | 342 | 0.0 | 0.0 | 0.00 | 0.00 | 0.00 | 80 | 1018.3 |
| 20260503045959 | 1 | 342 | 0.0 | 0.0 | 0.00 | 0.00 | 0.00 | 80 | 1018.4 |
| 20260503045759 | 1 | 342 | 0.0 | 0.0 | 0.00 | 0.00 | 0.00 | 80 | 1018.4 |
| 20260503045659 | 1 | 342 | 0.0 | 0.0 | 0.00 | 0.00 | 0.00 | 80 | 1018.4 |
| 20260503045600 | 1 | 342 | 0.0 | 0.0 | 0.00 | 0.00 | 0.00 | 80 | 1018.4 |
| 20260503045459 | 1 | 342 | 0.0 | 0.0 | 0.00 | 0.00 | 0.00 | 80 | 1018.3 |
| 20260503045358 | 1 | 342 | 0.0 | 0.0 | 0.00 | 0.00 | 0.00 | 80 | 1018.3 |
| 20260503045258 | 1 | 342 | 0.0 | 0.0 | 0.00 | 0.00 | 0.00 | 80 | 1018.4 |
| 20260503045159 | 1 | 342 | 0.0 | 0.0 | 0.00 | 0.00 | 0.00 | 80 | 1018.3 |
| 20260503045059 | 1 | 342 | 0.0 | 0.0 | 0.00 | 0.00 | 0.00 | 80 | 1018.3 |
| 20260503044959 | 1 | 342 | 0.0 | 0.0 | 0.00 | 0.00 | 0.00 | 80 | 1018.3 |
| 20260503044759 | 1 | 342 | 0.0 | 0.0 | 0.00 | 0.00 | 0.00 | 80 | 1018.4 |
| 20260503044700 | 1 | 342 | 0.0 | 0.0 | 0.00 | 0.00 | 0.00 | 80 | 1018.4 |
| 20260503044459 | 1 | 342 | 0.0 | 0.0 | 0.00 | 0.00 | 0.00 | 80 | 1018.4 |
| 20260503044359 | 1 | 342 | 0.0 | 0.0 | 0.00 | 0.00 | 0.00 | 80 | 1018.3 |
| 20260503044259 | 1 | 342 | 0.0 | 0.0 | 0.00 | 0.00 | 0.00 | 80 | 1018.4 |
| 20260503044200 | 1 | 342 | 0.0 | 0.0 | 0.00 | 0.00 | 0.00 | 80 | 1018.4 |
| 20260503044059 | 1 | 342 | 0.0 | 0.0 | 0.00 | 0.00 | 0.00 | 80 | 1018.4 |
| 20260503044000 | 1 | 342 | 0.0 | 0.0 | 0.00 | 0.00 | 0.00 | 80 | 1018.4 |
| 20260503043900 | 2 | 342 | 0.0 | 0.0 | 0.00 | 0.00 | 0.00 | 80 | 1018.3 |
| 20260503043800 | 2 | 342 | 0.0 | 0.0 | 0.00 | 0.00 | 0.00 | 79 | 1018.4 |
| 20260503043558 | 2 | 342 | 0.0 | 0.0 | 0.00 | 0.00 | 0.00 | 79 | 1018.4 |
| 20260503043500 | 2 | 342 | 0.0 | 0.0 | 0.00 | 0.00 | 0.00 | 79 | 1018.4 |
| 20260503043359 | 2 | 342 | 0.0 | 0.0 | 0.00 | 0.00 | 0.00 | 79 | 1018.4 |
| 20260503043300 | 2 | 342 | 0.0 | 0.0 | 0.00 | 0.00 | 0.00 | 79 | 1018.4 |
| 20260503043159 | 2 | 342 | 0.0 | 0.0 | 0.00 | 0.00 | 0.00 | 78 | 1018.4 |
| 20260503043101 | 2 | 342 | 0.0 | 0.0 | 0.00 | 0.00 | 0.00 | 78 | 1018.4 |
| 20260503042859 | 2 | 342 | 0.0 | 0.0 | 0.00 | 0.00 | 0.00 | 78 | 1018.3 |
| 20260503042700 | 2 | 342 | 0.0 | 0.0 | 0.00 | 0.00 | 0.00 | 78 | 1018.4 |
| 20260503042600 | 2 | 342 | 0.0 | 0.0 | 0.00 | 0.00 | 0.00 | 78 | 1018.4 |
| 20260503042500 | 2 | 342 | 0.0 | 0.0 | 0.00 | 0.00 | 0.00 | 78 | 1018.5 |
| 20260503042400 | 2 | 342 | 0.0 | 0.0 | 0.00 | 0.00 | 0.00 | 78 | 1018.5 |
| 20260503042201 | 2 | 342 | 0.0 | 0.0 | 0.00 | 0.00 | 0.00 | 78 | 1018.4 |
| 20260503042101 | 2 | 342 | 0.0 | 0.0 | 0.00 | 0.00 | 0.00 | 78 | 1018.4 |
| 20260503041959 | 2 | 342 | 0.0 | 0.0 | 0.00 | 0.00 | 0.00 | 78 | 1018.4 |
| 20260503041900 | 2 | 342 | 0.0 | 0.0 | 0.00 | 0.00 | 0.00 | 78 | 1018.4 |
| 20260503041802 | 2 | 342 | 0.0 | 0.0 | 0.00 | 0.00 | 0.00 | 78 | 1018.4 |
| 20260503041700 | 2 | 342 | 0.0 | 0.0 | 0.00 | 0.00 | 0.00 | 78 | 1018.4 |
| 20260503041502 | 2 | 342 | 0.0 | 0.0 | 0.00 | 0.00 | 0.00 | 78 | 1018.3 |
| 20260503041359 | 2 | 342 | 0.0 | 0.0 | 0.00 | 0.00 | 0.00 | 78 | 1018.4 |
| 20260503041300 | 2 | 342 | 0.0 | 0.0 | 0.00 | 0.00 | 0.00 | 78 | 1018.4 |
| 20260503041200 | 2 | 342 | 0.0 | 0.0 | 0.00 | 0.00 | 0.00 | 78 | 1018.4 |
| 20260503041002 | 2 | 342 | 0.0 | 0.0 | 0.00 | 0.00 | 0.00 | 78 | 1018.4 |
| 20260503040901 | 2 | 342 | 0.0 | 0.0 | 0.00 | 0.00 | 0.00 | 78 | 1018.4 |
| 20260503040802 | 2 | 342 | 0.0 | 0.0 | 0.00 | 0.00 | 0.00 | 78 | 1018.4 |
| 20260503040700 | 2 | 342 | 0.0 | 0.0 | 0.00 | 0.00 | 0.00 | 77 | 1018.4 |
| 20260503040600 | 2 | 342 | 0.0 | 0.0 | 0.00 | 0.00 | 0.00 | 77 | 1018.5 |
| 20260503040401 | 2 | 342 | 0.0 | 0.0 | 0.00 | 0.00 | 0.00 | 77 | 1018.4 |
| 20260503040301 | 2 | 342 | 0.0 | 0.0 | 0.00 | 0.00 | 0.00 | 77 | 1018.5 |
| 20260503040200 | 2 | 342 | 0.0 | 0.0 | 0.00 | 0.00 | 0.00 | 77 | 1018.5 |
| 20260503040101 | 2 | 342 | 0.0 | 0.0 | 0.00 | 0.00 | 0.00 | 77 | 1018.5 |
| 20260503040007 | 2 | 342 | 0.0 | 0.0 | 0.00 | 0.00 | 0.00 | 77 | 1018.5 |
| 20260503035901 | 2 | 342 | 0.0 | 0.0 | 0.00 | 0.00 | 0.00 | 77 | 1018.5 |
| 20260503035801 | 2 | 342 | 0.0 | 0.0 | 0.00 | 0.00 | 0.00 | 76 | 1018.5 |
| 20260503035702 | 2 | 342 | 0.0 | 0.0 | 0.00 | 0.00 | 0.00 | 76 | 1018.5 |
| 20260503035600 | 2 | 342 | 0.0 | 0.0 | 0.00 | 0.00 | 0.00 | 76 | 1018.6 |
| 20260503035501 | 2 | 342 | 0.0 | 0.0 | 0.00 | 0.00 | 0.00 | 76 | 1018.6 |
| 20260503035402 | 2 | 342 | 0.0 | 0.0 | 0.00 | 0.00 | 0.00 | 76 | 1018.5 |
| 20260503035200 | 2 | 342 | 0.0 | 0.0 | 0.00 | 0.00 | 0.00 | 76 | 1018.6 |
| 20260503035101 | 2 | 342 | 0.0 | 0.0 | 0.00 | 0.00 | 0.00 | 76 | 1018.6 |
| 20260503034902 | 2 | 342 | 0.0 | 0.0 | 0.00 | 0.00 | 0.00 | 76 | 1018.6 |
| 20260503034802 | 2 | 342 | 0.0 | 0.0 | 0.00 | 0.00 | 0.00 | 76 | 1018.6 |
| 20260503034700 | 2 | 342 | 0.0 | 0.0 | 0.00 | 0.00 | 0.00 | 75 | 1018.6 |
| 20260503034602 | 2 | 342 | 0.0 | 0.0 | 0.00 | 0.00 | 0.00 | 75 | 1018.6 |
| 20260503034500 | 2 | 342 | 0.0 | 0.0 | 0.00 | 0.00 | 0.00 | 75 | 1018.6 |
| 20260503034401 | 2 | 342 | 0.0 | 0.0 | 0.00 | 0.00 | 0.00 | 75 | 1018.5 |
| 20260503034301 | 2 | 342 | 0.0 | 0.0 | 0.00 | 0.00 | 0.00 | 75 | 1018.6 |
| 20260503034200 | 2 | 342 | 0.0 | 0.0 | 0.00 | 0.00 | 0.00 | 75 | 1018.6 |
| 20260503034103 | 2 | 342 | 0.0 | 0.0 | 0.00 | 0.00 | 0.00 | 75 | 1018.5 |
| 20260503034001 | 2 | 342 | 0.0 | 0.0 | 0.00 | 0.00 | 0.00 | 75 | 1018.6 |
| 20260503033901 | 2 | 342 | 0.0 | 0.0 | 0.00 | 0.00 | 0.00 | 75 | 1018.5 |
| 20260503033801 | 3 | 342 | 0.0 | 0.0 | 0.00 | 0.00 | 0.00 | 75 | 1018.6 |
| 20260503033701 | 3 | 342 | 0.0 | 0.0 | 0.00 | 0.00 | 0.00 | 75 | 1018.6 |
| 20260503033600 | 3 | 342 | 0.0 | 0.0 | 0.00 | 0.00 | 0.00 | 75 | 1018.6 |
| 20260503033500 | 3 | 342 | 0.0 | 0.0 | 0.00 | 0.00 | 0.00 | 75 | 1018.5 |
| 20260503033400 | 3 | 342 | 0.0 | 0.0 | 0.00 | 0.00 | 0.00 | 75 | 1018.5 |
| 20260503033300 | 3 | 342 | 0.0 | 0.0 | 0.00 | 0.00 | 0.00 | 75 | 1018.5 |
| 20260503033202 | 3 | 342 | 0.0 | 0.0 | 0.00 | 0.00 | 0.00 | 74 | 1018.5 |
| 20260503033101 | 3 | 342 | 0.0 | 0.0 | 0.00 | 0.00 | 0.00 | 74 | 1018.6 |
| 20260503033001 | 3 | 342 | 0.0 | 0.0 | 0.00 | 0.00 | 0.00 | 74 | 1018.5 |
| 20260503032902 | 3 | 342 | 0.0 | 0.0 | 0.00 | 0.00 | 0.00 | 74 | 1018.5 |
| 20260503032801 | 3 | 342 | 0.0 | 0.0 | 0.00 | 0.00 | 0.00 | 74 | 1018.5 |
| 20260503032601 | 3 | 342 | 0.0 | 0.0 | 0.00 | 0.00 | 0.00 | 74 | 1018.6 |
| 20260503032500 | 3 | 342 | 0.0 | 0.0 | 0.00 | 0.00 | 0.00 | 74 | 1018.5 |
| 20260503032400 | 3 | 342 | 0.0 | 0.0 | 0.00 | 0.00 | 0.00 | 74 | 1018.5 |
| 20260503032304 | 3 | 342 | 0.0 | 0.0 | 0.00 | 0.00 | 0.00 | 74 | 1018.6 |
| 20260503032201 | 3 | 342 | 0.0 | 0.0 | 0.00 | 0.00 | 0.00 | 74 | 1018.5 |
| 20260503032100 | 3 | 342 | 0.0 | 0.0 | 0.00 | 0.00 | 0.00 | 73 | 1018.5 |
| 20260503032000 | 3 | 342 | 0.0 | 0.0 | 0.00 | 0.00 | 0.00 | 73 | 1018.5 |
| 20260503031701 | 3 | 342 | 0.0 | 0.0 | 0.00 | 0.00 | 0.00 | 73 | 1018.4 |
| 20260503031500 | 3 | 342 | 0.0 | 0.0 | 0.00 | 0.00 | 0.00 | 72 | 1018.5 |
| 20260503031401 | 3 | 342 | 0.0 | 0.0 | 0.00 | 0.00 | 0.00 | 72 | 1018.5 |
| 20260503031301 | 3 | 342 | 0.0 | 0.0 | 0.00 | 0.00 | 0.00 | 72 | 1018.5 |
| 20260503031203 | 3 | 342 | 0.0 | 0.0 | 0.00 | 0.00 | 0.00 | 72 | 1018.5 |
| 20260503031104 | 3 | 342 | 0.0 | 0.0 | 0.00 | 0.00 | 0.00 | 72 | 1018.5 |
| 20260503031000 | 3 | 342 | 0.0 | 0.0 | 0.00 | 0.00 | 0.00 | 72 | 1018.5 |
| 20260503030901 | 3 | 342 | 0.0 | 0.0 | 0.00 | 0.00 | 0.00 | 72 | 1018.5 |
| 20260503030600 | 3 | 342 | 0.0 | 0.0 | 0.00 | 0.00 | 0.00 | 72 | 1018.5 |
| 20260503030501 | 3 | 342 | 0.0 | 0.0 | 0.00 | 0.00 | 0.00 | 72 | 1018.5 |
| 20260503030301 | 3 | 342 | 0.0 | 0.0 | 0.00 | 0.00 | 0.00 | 71 | 1018.5 |
| 20260503030200 | 3 | 342 | 0.0 | 0.0 | 0.00 | 0.00 | 0.00 | 71 | 1018.5 |
| 20260503030004 | 3 | 342 | 0.0 | 0.0 | 0.00 | 0.00 | 0.00 | 71 | 1018.5 |
| 20260503025900 | 3 | 342 | 0.0 | 0.0 | 0.00 | 0.00 | 0.00 | 71 | 1018.5 |
| 20260503025700 | 4 | 342 | 0.0 | 0.0 | 0.00 | 0.00 | 0.00 | 70 | 1018.4 |
| 20260503025500 | 4 | 342 | 0.0 | 0.0 | 0.00 | 0.00 | 0.00 | 70 | 1018.5 |
| 20260503025402 | 4 | 342 | 0.0 | 0.0 | 0.00 | 0.00 | 0.00 | 70 | 1018.5 |
| 20260503025259 | 4 | 342 | 0.0 | 0.0 | 0.00 | 0.00 | 0.00 | 70 | 1018.5 |
| 20260503025201 | 4 | 342 | 0.0 | 0.0 | 0.00 | 0.00 | 0.00 | 69 | 1018.5 |
| 20260503025101 | 4 | 342 | 0.0 | 0.0 | 0.00 | 0.00 | 0.00 | 69 | 1018.5 |
| 20260503025000 | 4 | 342 | 0.0 | 0.0 | 0.00 | 0.00 | 0.00 | 69 | 1018.5 |
| 20260503024803 | 4 | 342 | 0.0 | 0.0 | 0.00 | 0.00 | 0.00 | 69 | 1018.5 |
| 20260503024600 | 4 | 342 | 0.0 | 0.0 | 0.00 | 0.00 | 0.00 | 69 | 1018.5 |
| 20260503024501 | 4 | 342 | 0.0 | 0.0 | 0.00 | 0.00 | 0.00 | 69 | 1018.5 |
| 20260503024400 | 4 | 342 | 0.0 | 0.0 | 0.00 | 0.00 | 0.00 | 68 | 1018.5 |
| 20260503024300 | 4 | 342 | 0.0 | 0.0 | 0.00 | 0.00 | 0.00 | 68 | 1018.5 |
| 20260503024200 | 4 | 342 | 0.0 | 0.0 | 0.00 | 0.00 | 0.00 | 68 | 1018.5 |
| 20260503024102 | 4 | 342 | 0.0 | 0.0 | 0.00 | 0.00 | 0.00 | 68 | 1018.5 |
| 20260503024000 | 4 | 342 | 0.0 | 0.0 | 0.00 | 0.00 | 0.00 | 68 | 1018.4 |
| 20260503023900 | 4 | 342 | 0.0 | 0.0 | 0.00 | 0.00 | 0.00 | 68 | 1018.5 |
| 20260503023800 | 4 | 342 | 0.0 | 0.0 | 0.00 | 0.00 | 0.00 | 67 | 1018.5 |
| 20260503023600 | 5 | 342 | 0.0 | 0.0 | 0.00 | 0.00 | 0.00 | 67 | 1018.5 |
| 20260503023500 | 5 | 342 | 0.0 | 0.0 | 0.00 | 0.00 | 0.00 | 67 | 1018.5 |
| 20260503023402 | 5 | 342 | 0.0 | 0.0 | 0.00 | 0.00 | 0.00 | 67 | 1018.5 |
| 20260503023259 | 5 | 342 | 0.0 | 0.0 | 0.00 | 0.00 | 0.00 | 67 | 1018.5 |
| 20260503023201 | 5 | 342 | 0.0 | 0.0 | 0.00 | 0.00 | 0.00 | 67 | 1018.5 |
| 20260503023102 | 5 | 342 | 0.0 | 0.0 | 0.00 | 0.00 | 0.00 | 67 | 1018.5 |
| 20260503023002 | 5 | 342 | 0.0 | 0.0 | 0.00 | 0.00 | 0.00 | 66 | 1018.5 |
| 20260503022901 | 5 | 342 | 0.0 | 0.0 | 0.00 | 0.00 | 0.00 | 66 | 1018.5 |
| 20260503022800 | 5 | 342 | 0.0 | 0.0 | 0.00 | 0.00 | 0.00 | 66 | 1018.4 |
| 20260503022600 | 5 | 342 | 0.0 | 0.0 | 0.00 | 0.00 | 0.00 | 65 | 1018.4 |
| 20260503022500 | 5 | 342 | 0.0 | 0.0 | 0.00 | 0.00 | 0.00 | 65 | 1018.4 |
| 20260503022400 | 5 | 342 | 0.0 | 0.0 | 0.00 | 0.00 | 0.00 | 65 | 1018.4 |
| 20260503022201 | 5 | 342 | 0.0 | 0.0 | 0.00 | 0.00 | 0.00 | 64 | 1018.4 |
| 20260503022100 | 5 | 342 | 0.0 | 0.0 | 0.00 | 0.00 | 0.00 | 64 | 1018.4 |
| 20260503022000 | 5 | 342 | 0.0 | 0.0 | 0.00 | 0.00 | 0.00 | 64 | 1018.4 |
| 20260503021902 | 5 | 342 | 0.0 | 0.0 | 0.00 | 0.00 | 0.00 | 64 | 1018.4 |
| 20260503021800 | 5 | 342 | 0.0 | 0.0 | 0.00 | 0.00 | 0.00 | 64 | 1018.4 |
| 20260503021700 | 5 | 342 | 0.0 | 0.0 | 0.00 | 0.00 | 0.00 | 64 | 1018.4 |
| 20260503021601 | 5 | 342 | 0.0 | 0.0 | 0.00 | 0.00 | 0.00 | 64 | 1018.4 |
| 20260503021503 | 5 | 342 | 0.0 | 0.0 | 0.00 | 0.00 | 0.00 | 63 | 1018.4 |
| 20260503021359 | 5 | 342 | 0.0 | 0.0 | 0.00 | 0.00 | 0.00 | 63 | 1018.3 |
| 20260503021201 | 5 | 342 | 0.0 | 0.0 | 0.00 | 0.00 | 0.00 | 63 | 1018.3 |
| 20260503021100 | 5 | 342 | 0.0 | 0.0 | 0.00 | 0.00 | 0.00 | 63 | 1018.3 |
| 20260503020902 | 5 | 342 | 0.0 | 0.0 | 0.00 | 0.00 | 0.00 | 62 | 1018.3 |
| 20260503020801 | 5 | 342 | 0.0 | 0.0 | 0.00 | 0.00 | 0.00 | 62 | 1018.3 |
| 20260503020701 | 5 | 342 | 0.0 | 0.0 | 0.00 | 0.00 | 0.00 | 62 | 1018.3 |
| 20260503020600 | 5 | 342 | 0.0 | 0.0 | 0.00 | 0.00 | 0.00 | 62 | 1018.3 |
| 20260503020501 | 5 | 342 | 0.0 | 0.0 | 0.00 | 0.00 | 0.00 | 62 | 1018.3 |
| 20260503020401 | 5 | 342 | 0.0 | 0.0 | 0.00 | 0.00 | 0.00 | 62 | 1018.2 |
| 20260503020300 | 5 | 342 | 0.0 | 0.0 | 0.00 | 0.00 | 0.00 | 61 | 1018.2 |
| 20260503020005 | 6 | 342 | 0.0 | 0.0 | 0.00 | 0.00 | 0.00 | 61 | 1018.2 |
| 20260503015803 | 6 | 342 | 0.0 | 0.0 | 0.00 | 0.00 | 0.00 | 60 | 1018.2 |
| 20260503015702 | 6 | 342 | 0.0 | 0.0 | 0.00 | 0.00 | 0.00 | 60 | 1018.2 |
| 20260503015601 | 6 | 342 | 0.0 | 0.0 | 0.00 | 0.00 | 0.00 | 61 | 1018.2 |
| 20260503015502 | 6 | 342 | 0.0 | 0.0 | 0.00 | 0.00 | 0.00 | 60 | 1018.2 |
| 20260503015402 | 6 | 342 | 0.0 | 0.0 | 0.00 | 0.00 | 0.00 | 60 | 1018.2 |
| 20260503015301 | 6 | 342 | 0.0 | 0.0 | 0.00 | 0.00 | 0.00 | 60 | 1018.1 |
| 20260503015201 | 6 | 342 | 0.0 | 0.0 | 0.00 | 0.00 | 0.00 | 60 | 1018.2 |
| 20260503015001 | 6 | 342 | 0.0 | 0.0 | 0.00 | 0.00 | 0.00 | 60 | 1018.1 |
| 20260503014901 | 6 | 342 | 0.0 | 0.0 | 0.00 | 0.00 | 0.00 | 60 | 1018.1 |
| 20260503014802 | 6 | 342 | 0.0 | 1.6 | 0.00 | 0.00 | 0.00 | 60 | 1018.1 |
| 20260503014501 | 6 | 342 | 0.0 | 1.6 | 0.00 | 0.00 | 0.00 | 59 | 1018.1 |
| 20260503014301 | 6 | 342 | 0.0 | 1.6 | 0.00 | 0.00 | 0.00 | 59 | 1018.1 |
| 20260503014201 | 6 | 342 | 0.0 | 1.6 | 0.00 | 0.00 | 0.00 | 59 | 1018.1 |
| 20260503014002 | 6 | 342 | 0.0 | 1.6 | 0.00 | 0.00 | 0.00 | 58 | 1018.1 |
| 20260503013901 | 6 | 342 | 0.0 | 1.6 | 0.00 | 0.00 | 0.00 | 58 | 1018.1 |
| 20260503013802 | 6 | 342 | 0.0 | 1.6 | 0.00 | 0.00 | 0.00 | 58 | 1018.0 |
| 20260503013703 | 6 | 342 | 0.0 | 1.6 | 0.00 | 0.00 | 0.00 | 58 | 1018.0 |
| 20260503013502 | 6 | 342 | 0.0 | 1.6 | 0.00 | 0.00 | 0.00 | 58 | 1017.9 |
| 20260503013401 | 6 | 342 | 0.0 | 1.6 | 0.00 | 0.00 | 0.00 | 58 | 1017.9 |
| 20260503013301 | 7 | 342 | 0.0 | 1.6 | 0.00 | 0.00 | 0.00 | 57 | 1017.9 |
| 20260503013202 | 7 | 342 | 0.0 | 1.6 | 0.00 | 0.00 | 0.00 | 57 | 1017.9 |
| 20260503013100 | 7 | 342 | 0.0 | 3.2 | 0.00 | 0.00 | 0.00 | 57 | 1018.0 |
| 20260503013001 | 7 | 342 | 0.0 | 3.2 | 0.00 | 0.00 | 0.00 | 56 | 1018.0 |
| 20260503012900 | 7 | 342 | 0.0 | 3.2 | 0.00 | 0.00 | 0.00 | 56 | 1017.9 |
| 20260503012800 | 7 | 342 | 0.0 | 3.2 | 0.00 | 0.00 | 0.00 | 56 | 1017.9 |
| 20260503012700 | 7 | 342 | 0.0 | 3.2 | 0.00 | 0.00 | 0.00 | 56 | 1017.9 |
| 20260503012600 | 7 | 342 | 0.0 | 3.2 | 0.00 | 0.00 | 0.00 | 56 | 1018.0 |
| 20260503012500 | 7 | 342 | 0.0 | 3.2 | 0.00 | 0.00 | 0.00 | 56 | 1018.0 |
| 20260503012400 | 7 | 342 | 0.0 | 3.2 | 0.00 | 0.00 | 0.00 | 56 | 1017.8 |
| 20260503012200 | 7 | 360 | 0.0 | 0.0 | 0.00 | 0.00 | 0.00 | 55 | 1017.8 |
| 20260503012100 | 7 | 360 | 0.0 | 0.0 | 0.00 | 0.00 | 0.00 | 55 | 1017.8 |
| 20260503012000 | 7 | 360 | 0.0 | 0.0 | 0.00 | 0.00 | 0.00 | 55 | 1017.9 |
| 20260503011900 | 7 | 5 | 0.0 | 0.0 | 0.00 | 0.00 | 0.00 | 55 | 1017.8 |
| 20260503011803 | 7 | 5 | 0.0 | 0.0 | 0.00 | 0.00 | 0.00 | 55 | 1017.8 |
| 20260503011700 | 7 | 14 | 0.0 | 0.0 | 0.00 | 0.00 | 0.00 | 55 | 1017.8 |
| 20260503011503 | 7 | 14 | 0.0 | 0.0 | 0.00 | 0.00 | 0.00 | 54 | 1017.7 |
| 20260503011359 | 7 | 14 | 0.0 | 0.0 | 0.00 | 0.00 | 0.00 | 54 | 1017.8 |
| 20260503011301 | 7 | 14 | 0.0 | 0.0 | 0.00 | 0.00 | 0.00 | 54 | 1017.7 |
| 20260503011201 | 7 | 14 | 0.0 | 0.0 | 0.00 | 0.00 | 0.00 | 54 | 1017.7 |
| 20260503011102 | 7 | 14 | 0.0 | 0.0 | 0.00 | 0.00 | 0.00 | 54 | 1017.7 |
| 20260503011000 | 7 | 14 | 0.0 | 0.0 | 0.00 | 0.00 | 0.00 | 54 | 1017.6 |
| 20260503010901 | 7 | 14 | 0.0 | 3.2 | 0.00 | 0.00 | 0.00 | 53 | 1017.6 |
| 20260503010800 | 7 | 14 | 0.0 | 4.8 | 0.00 | 0.00 | 0.00 | 53 | 1017.7 |
| 20260503010700 | 7 | 14 | 0.0 | 4.8 | 0.00 | 0.00 | 0.00 | 53 | 1017.7 |
| 20260503010602 | 7 | 14 | 0.0 | 8.0 | 0.00 | 0.00 | 0.00 | 53 | 1017.6 |
| 20260503010501 | 7 | 14 | 0.0 | 8.0 | 0.00 | 0.00 | 0.00 | 53 | 1017.6 |
| 20260503010400 | 7 | 14 | 0.0 | 8.0 | 0.00 | 0.00 | 0.00 | 53 | 1017.6 |
| 20260503010301 | 7 | 16 | 0.0 | 8.0 | 0.00 | 0.00 | 0.00 | 53 | 1017.7 |
| 20260503010201 | 7 | 19 | 0.0 | 8.0 | 0.00 | 0.00 | 0.00 | 53 | 1017.6 |
| 20260503010001 | 7 | 5 | 3.2 | 8.0 | 0.00 | 0.00 | 0.00 | 53 | 1017.7 |
| 20260503005901 | 7 | 11 | 0.0 | 8.0 | 0.00 | 0.00 | 0.00 | 52 | 1017.7 |
| 20260503005800 | 7 | 10 | 0.0 | 8.0 | 0.00 | 0.00 | 0.00 | 52 | 1017.6 |
| 20260503005701 | 7 | 14 | 3.2 | 6.4 | 0.00 | 0.00 | 0.00 | 53 | 1017.6 |
| 20260503005600 | 8 | 15 | 3.2 | 6.4 | 0.00 | 0.00 | 0.00 | 52 | 1017.6 |
| 20260503005500 | 8 | 341 | 0.0 | 9.7 | 0.00 | 0.00 | 0.00 | 52 | 1017.6 |
| 20260503005400 | 8 | 347 | 0.0 | 9.7 | 0.00 | 0.00 | 0.00 | 52 | 1017.6 |
| 20260503005300 | 8 | 348 | 0.0 | 9.7 | 0.00 | 0.00 | 0.00 | 52 | 1017.5 |
| 20260503005200 | 8 | 348 | 1.6 | 9.7 | 0.00 | 0.00 | 0.00 | 52 | 1017.6 |
| 20260503005101 | 8 | 346 | 0.0 | 9.7 | 0.00 | 0.00 | 0.00 | 52 | 1017.6 |
| 20260503005000 | 8 | 333 | 3.2 | 9.7 | 0.00 | 0.00 | 0.00 | 52 | 1017.6 |
| 20260503004901 | 8 | 14 | 1.6 | 9.7 | 0.00 | 0.00 | 0.00 | 52 | 1017.5 |
| 20260503004801 | 8 | 23 | 0.0 | 9.7 | 0.00 | 0.00 | 0.00 | 51 | 1017.5 |
| 20260503004700 | 8 | 22 | 4.8 | 9.7 | 0.00 | 0.00 | 0.00 | 51 | 1017.5 |
| 20260503004603 | 8 | 360 | 4.8 | 4.8 | 0.00 | 0.00 | 0.00 | 52 | 1017.5 |
| 20260503004500 | 8 | 17 | 0.0 | 6.4 | 0.00 | 0.00 | 0.00 | 51 | 1017.5 |
| 20260503004402 | 8 | 27 | 4.8 | 6.4 | 0.00 | 0.00 | 0.00 | 51 | 1017.5 |
| 20260503004200 | 8 | 336 | 1.6 | 6.4 | 0.00 | 0.00 | 0.00 | 51 | 1017.6 |
| 20260503004000 | 8 | 5 | 1.6 | 6.4 | 0.00 | 0.00 | 0.00 | 51 | 1017.4 |
| 20260503003901 | 8 | 15 | 3.2 | 6.4 | 0.00 | 0.00 | 0.00 | 51 | 1017.4 |
| 20260503003800 | 8 | 343 | 3.2 | 6.4 | 0.00 | 0.00 | 0.00 | 51 | 1017.4 |
| 20260503003600 | 8 | 346 | 4.8 | 6.4 | 0.00 | 0.00 | 0.00 | 51 | 1017.4 |
| 20260503003500 | 8 | 335 | 0.0 | 1.6 | 0.00 | 0.00 | 0.00 | 51 | 1017.4 |
| 20260503003401 | 8 | 335 | 0.0 | 6.4 | 0.00 | 0.00 | 0.00 | 51 | 1017.3 |
| 20260503003301 | 8 | 335 | 0.0 | 6.4 | 0.00 | 0.00 | 0.00 | 50 | 1017.3 |
| 20260503003200 | 8 | 335 | 0.0 | 6.4 | 0.00 | 0.00 | 0.00 | 50 | 1017.3 |
| 20260503003102 | 8 | 335 | 0.0 | 6.4 | 0.00 | 0.00 | 0.00 | 50 | 1017.3 |
| 20260503002859 | 8 | 335 | 0.0 | 6.4 | 0.00 | 0.00 | 0.00 | 50 | 1017.2 |
| 20260503002801 | 8 | 335 | 0.0 | 8.0 | 0.00 | 0.00 | 0.00 | 49 | 1017.3 |
| 20260503002700 | 8 | 335 | 0.0 | 8.0 | 0.00 | 0.00 | 0.00 | 49 | 1017.3 |
| 20260503002601 | 8 | 334 | 1.6 | 8.0 | 0.00 | 0.00 | 0.00 | 49 | 1017.2 |
| 20260503002501 | 8 | 355 | 1.6 | 8.0 | 0.00 | 0.00 | 0.00 | 49 | 1017.2 |
| 20260503002300 | 8 | 5 | 3.2 | 8.0 | 0.00 | 0.00 | 0.00 | 49 | 1017.1 |
| 20260503002200 | 8 | 355 | 1.6 | 8.0 | 0.00 | 0.00 | 0.00 | 49 | 1017.2 |
| 20260503002100 | 8 | 331 | 0.0 | 8.0 | 0.00 | 0.00 | 0.00 | 48 | 1017.1 |
| 20260503002000 | 8 | 334 | 3.2 | 8.0 | 0.00 | 0.00 | 0.00 | 48 | 1017.0 |
| 20260503001900 | 8 | 325 | 1.6 | 6.4 | 0.00 | 0.00 | 0.00 | 49 | 1017.1 |
| 20260503001800 | 8 | 333 | 1.6 | 6.4 | 0.00 | 0.00 | 0.00 | 50 | 1017.1 |
| 20260503001701 | 9 | 333 | 4.8 | 9.7 | 0.00 | 0.00 | 0.00 | 49 | 1017.1 |
| 20260503001601 | 9 | 5 | 0.0 | 9.7 | 0.00 | 0.00 | 0.00 | 49 | 1017.1 |
| 20260503001402 | 9 | 333 | 3.2 | 9.7 | 0.00 | 0.00 | 0.00 | 49 | 1017.1 |
| 20260503001302 | 9 | 355 | 1.6 | 9.7 | 0.00 | 0.00 | 0.00 | 49 | 1017.0 |
| 20260503001201 | 9 | 350 | 3.2 | 9.7 | 0.00 | 0.00 | 0.00 | 50 | 1017.0 |
| 20260503001101 | 9 | 21 | 3.2 | 9.7 | 0.00 | 0.00 | 0.00 | 48 | 1017.0 |
| 20260503001001 | 9 | 22 | 0.0 | 16.1 | 0.00 | 0.00 | 0.00 | 48 | 1016.9 |
| 20260503000901 | 9 | 22 | 1.6 | 16.1 | 0.00 | 0.00 | 0.00 | 48 | 1016.9 |
| 20260503000700 | 9 | 350 | 3.2 | 16.1 | 0.00 | 0.00 | 0.00 | 48 | 1016.9 |
| 20260503000600 | 9 | 9 | 0.0 | 16.1 | 0.00 | 0.00 | 0.00 | 48 | 1016.9 |
| 20260503000501 | 9 | 9 | 0.0 | 16.1 | 0.00 | 0.00 | 0.00 | 48 | 1016.9 |
| 20260503000402 | 9 | 9 | 1.6 | 16.1 | 0.00 | 0.00 | 0.00 | 47 | 1016.9 |
| 20260503000300 | 9 | 5 | 3.2 | 16.1 | 0.00 | 0.00 | 0.00 | 47 | 1016.9 |
| 20260503000200 | 9 | 19 | 16.1 | 16.1 | 0.00 | 0.00 | 0.00 | 47 | 1016.8 |
| 20260503000100 | 9 | 57 | 0.0 | 8.0 | 0.00 | 0.00 | 0.00 | 47 | 1016.8 |
| 20260503000004 | 9 | 348 | 1.6 | 12.9 | 0.00 | 0.00 | 0.00 | 48 | 1016.8 |
| 20260502235903 | 9 | 326 | 0.0 | 12.9 | 0.00 | 0.00 | 0.00 | 47 | 1016.9 |
| 20260502235702 | 10 | 18 | 1.6 | 12.9 | 0.00 | 0.00 | 0.00 | 49 | 1016.9 |
| 20260502235602 | 10 | 360 | 0.0 | 12.9 | 0.00 | 0.00 | 0.00 | 48 | 1016.8 |
| 20260502235502 | 10 | 355 | 0.0 | 12.9 | 0.00 | 0.00 | 0.00 | 48 | 1016.8 |
| 20260502235401 | 10 | 355 | 0.0 | 12.9 | 0.00 | 0.00 | 0.00 | 47 | 1016.8 |
| 20260502235301 | 10 | 19 | 4.8 | 12.9 | 0.00 | 0.00 | 0.00 | 47 | 1016.8 |
| 20260502235202 | 10 | 360 | 6.4 | 12.9 | 0.00 | 0.00 | 0.00 | 46 | 1016.8 |
| 20260502235103 | 10 | 355 | 8.0 | 12.9 | 0.00 | 0.00 | 0.00 | 47 | 1016.8 |
| 20260502235002 | 10 | 9 | 0.0 | 6.4 | 0.00 | 0.00 | 0.00 | 47 | 1016.8 |
| 20260502234901 | 10 | 26 | 1.6 | 6.4 | 0.00 | 0.00 | 0.00 | 47 | 1016.8 |
| 20260502234801 | 10 | 347 | 0.0 | 6.4 | 0.00 | 0.00 | 0.00 | 46 | 1016.8 |
| 20260502234702 | 10 | 5 | 0.0 | 6.4 | 0.00 | 0.00 | 0.00 | 47 | 1016.8 |
| 20260502234602 | 10 | 24 | 1.6 | 8.0 | 0.00 | 0.00 | 0.00 | 46 | 1016.7 |
| 20260502234502 | 10 | 24 | 1.6 | 9.7 | 0.00 | 0.00 | 0.00 | 46 | 1016.7 |
| 20260502234400 | 10 | 355 | 3.2 | 9.7 | 0.00 | 0.00 | 0.00 | 46 | 1016.7 |
| 20260502234303 | 10 | 11 | 0.0 | 12.9 | 0.00 | 0.00 | 0.00 | 46 | 1016.7 |
| 20260502234202 | 10 | 5 | 0.0 | 12.9 | 0.00 | 0.00 | 0.00 | 47 | 1016.8 |
| 20260502234102 | 10 | 5 | 0.0 | 12.9 | 0.00 | 0.00 | 0.00 | 46 | 1016.7 |
| 20260502234001 | 10 | 16 | 4.8 | 12.9 | 0.00 | 0.00 | 0.00 | 46 | 1016.7 |
| 20260502233902 | 10 | 20 | 1.6 | 12.9 | 0.00 | 0.00 | 0.00 | 46 | 1016.7 |
| 20260502233802 | 10 | 12 | 0.0 | 12.9 | 0.00 | 0.00 | 0.00 | 46 | 1016.7 |
| 20260502233701 | 10 | 326 | 8.0 | 12.9 | 0.00 | 0.00 | 0.00 | 45 | 1016.7 |
| 20260502233601 | 10 | 336 | 4.8 | 12.9 | 0.00 | 0.00 | 0.00 | 45 | 1016.7 |
| 20260502233503 | 10 | 5 | 4.8 | 12.9 | 0.00 | 0.00 | 0.00 | 45 | 1016.7 |
| 20260502233400 | 10 | 344 | 1.6 | 4.8 | 0.00 | 0.00 | 0.00 | 45 | 1016.6 |
| 20260502233302 | 10 | 343 | 1.6 | 6.4 | 0.00 | 0.00 | 0.00 | 45 | 1016.6 |
| 20260502233201 | 10 | 342 | 1.6 | 9.7 | 0.00 | 0.00 | 0.00 | 45 | 1016.7 |
| 20260502233001 | 10 | 9 | 1.6 | 16.1 | 0.00 | 0.00 | 0.00 | 45 | 1016.6 |
| 20260502232901 | 10 | 351 | 0.0 | 16.1 | 0.00 | 0.00 | 0.00 | 44 | 1016.7 |
| 20260502232802 | 10 | 5 | 0.0 | 16.1 | 0.00 | 0.00 | 0.00 | 44 | 1016.7 |
| 20260502232701 | 10 | 5 | 0.0 | 16.1 | 0.00 | 0.00 | 0.00 | 44 | 1016.7 |
| 20260502232602 | 10 | 38 | 1.6 | 16.1 | 0.00 | 0.00 | 0.00 | 45 | 1016.6 |
| 20260502232402 | 10 | 333 | 4.8 | 16.1 | 0.00 | 0.00 | 0.00 | 44 | 1016.6 |
| 20260502232304 | 10 | 360 | 8.0 | 16.1 | 0.00 | 0.00 | 0.00 | 44 | 1016.6 |
| 20260502232201 | 10 | 341 | 1.6 | 8.0 | 0.00 | 0.00 | 0.00 | 45 | 1016.7 |
| 20260502232002 | 11 | 360 | 3.2 | 8.0 | 0.00 | 0.00 | 0.00 | 45 | 1016.7 |
| 20260502231901 | 11 | 9 | 3.2 | 8.0 | 0.00 | 0.00 | 0.00 | 45 | 1016.7 |
| 20260502231803 | 11 | 18 | 0.0 | 8.0 | 0.00 | 0.00 | 0.00 | 45 | 1016.6 |
| 20260502231700 | 11 | 9 | 1.6 | 8.0 | 0.00 | 0.00 | 0.00 | 45 | 1016.7 |
| 20260502231602 | 11 | 344 | 0.0 | 8.0 | 0.00 | 0.00 | 0.00 | 45 | 1016.6 |
| 20260502231502 | 11 | 348 | 3.2 | 8.0 | 0.00 | 0.00 | 0.00 | 44 | 1016.5 |
| 20260502231404 | 11 | 327 | 0.0 | 8.0 | 0.00 | 0.00 | 0.00 | 44 | 1016.5 |
| 20260502231301 | 11 | 360 | 3.2 | 12.9 | 0.00 | 0.00 | 0.00 | 44 | 1016.6 |
| 20260502231202 | 11 | 68 | 1.6 | 12.9 | 0.00 | 0.00 | 0.00 | 44 | 1016.5 |
| 20260502231102 | 11 | 31 | 1.6 | 12.9 | 0.00 | 0.00 | 0.00 | 44 | 1016.5 |
| 20260502231001 | 11 | 26 | 0.0 | 12.9 | 0.00 | 0.00 | 0.00 | 44 | 1016.7 |
| 20260502230902 | 11 | 24 | 4.8 | 12.9 | 0.00 | 0.00 | 0.00 | 44 | 1016.7 |
| 20260502230801 | 11 | 334 | 3.2 | 12.9 | 0.00 | 0.00 | 0.00 | 43 | 1016.6 |
| 20260502230701 | 11 | 329 | 1.6 | 12.9 | 0.00 | 0.00 | 0.00 | 43 | 1016.7 |
| 20260502230601 | 11 | 332 | 0.0 | 12.9 | 0.00 | 0.00 | 0.00 | 43 | 1016.7 |
| 20260502230502 | 11 | 344 | 8.0 | 12.9 | 0.00 | 0.00 | 0.00 | 42 | 1016.6 |
| 20260502230401 | 11 | 355 | 6.4 | 12.9 | 0.00 | 0.00 | 0.00 | 43 | 1016.7 |
| 20260502230302 | 11 | 333 | 0.0 | 3.2 | 0.00 | 0.00 | 0.00 | 43 | 1016.6 |
| 20260502230201 | 11 | 360 | 3.2 | 6.4 | 0.00 | 0.00 | 0.00 | 43 | 1016.5 |
| 20260502230101 | 11 | 248 | 1.6 | 6.4 | 0.00 | 0.00 | 0.00 | 43 | 1016.6 |
| 20260502230001 | 11 | 321 | 0.0 | 6.4 | 0.00 | 0.00 | 0.00 | 43 | 1016.6 |
| 20260502225902 | 11 | 317 | 0.0 | 6.4 | 0.00 | 0.00 | 0.00 | 43 | 1016.6 |
| 20260502225800 | 11 | 275 | 3.2 | 8.0 | 0.00 | 0.00 | 0.00 | 43 | 1016.6 |
| 20260502225602 | 11 | 355 | 0.0 | 8.0 | 0.00 | 0.00 | 0.00 | 44 | 1016.6 |
| 20260502225502 | 11 | 355 | 0.0 | 8.0 | 0.00 | 0.00 | 0.00 | 43 | 1016.6 |
| 20260502225400 | 11 | 355 | 1.6 | 8.0 | 0.00 | 0.00 | 0.00 | 44 | 1016.6 |
| 20260502225202 | 11 | 5 | 0.0 | 8.0 | 0.00 | 0.00 | 0.00 | 43 | 1016.5 |
| 20260502225101 | 11 | 5 | 1.6 | 8.0 | 0.00 | 0.00 | 0.00 | 43 | 1016.6 |
| 20260502225000 | 11 | 324 | 1.6 | 8.0 | 0.00 | 0.00 | 0.00 | 43 | 1016.5 |
| 20260502224900 | 11 | 355 | 3.2 | 8.0 | 0.00 | 0.00 | 0.00 | 43 | 1016.5 |
| 20260502224600 | 11 | 330 | 0.0 | 12.9 | 0.00 | 0.00 | 0.00 | 43 | 1016.5 |
| 20260502224500 | 11 | 334 | 1.6 | 12.9 | 0.00 | 0.00 | 0.00 | 43 | 1016.5 |
| 20260502224401 | 11 | 331 | 3.2 | 12.9 | 0.00 | 0.00 | 0.00 | 42 | 1016.5 |
| 20260502224300 | 11 | 350 | 1.6 | 12.9 | 0.00 | 0.00 | 0.00 | 44 | 1016.5 |
| 20260502224200 | 11 | 5 | 1.6 | 12.9 | 0.00 | 0.00 | 0.00 | 43 | 1016.5 |
| 20260502224101 | 11 | 342 | 3.2 | 12.9 | 0.00 | 0.00 | 0.00 | 43 | 1016.5 |
| 20260502224001 | 11 | 281 | 0.0 | 12.9 | 0.00 | 0.00 | 0.00 | 44 | 1016.6 |
| 20260502223901 | 11 | 300 | 3.2 | 12.9 | 0.00 | 0.00 | 0.00 | 44 | 1016.5 |
| 20260502223800 | 11 | 341 | 3.2 | 12.9 | 0.00 | 0.00 | 0.00 | 44 | 1016.6 |
| 20260502223700 | 11 | 346 | 4.8 | 6.4 | 0.00 | 0.00 | 0.00 | 43 | 1016.5 |
| 20260502223602 | 11 | 315 | 1.6 | 6.4 | 0.00 | 0.00 | 0.00 | 45 | 1016.5 |
| 20260502223503 | 11 | 350 | 4.8 | 6.4 | 0.00 | 0.00 | 0.00 | 45 | 1016.6 |
| 20260502223401 | 11 | 346 | 1.6 | 6.4 | 0.00 | 0.00 | 0.00 | 45 | 1016.5 |
| 20260502223300 | 11 | 15 | 0.0 | 6.4 | 0.00 | 0.00 | 0.00 | 44 | 1016.6 |
| 20260502223201 | 11 | 15 | 3.2 | 19.3 | 0.00 | 0.00 | 0.00 | 44 | 1016.6 |
| 20260502223002 | 11 | 350 | 3.2 | 19.3 | 0.00 | 0.00 | 0.00 | 44 | 1016.6 |
| 20260502222901 | 11 | 349 | 3.2 | 19.3 | 0.00 | 0.00 | 0.00 | 43 | 1016.6 |
| 20260502222802 | 11 | 355 | 3.2 | 19.3 | 0.00 | 0.00 | 0.00 | 44 | 1016.6 |
| 20260502222703 | 11 | 351 | 0.0 | 19.3 | 0.00 | 0.00 | 0.00 | 43 | 1016.6 |
| 20260502222501 | 11 | 332 | 6.4 | 19.3 | 0.00 | 0.00 | 0.00 | 42 | 1016.6 |
| 20260502222402 | 11 | 5 | 4.8 | 19.3 | 0.00 | 0.00 | 0.00 | 42 | 1016.6 |
| 20260502222305 | 11 | 38 | 16.1 | 19.3 | 0.00 | 0.00 | 0.00 | 42 | 1016.5 |
| 20260502222201 | 11 | 355 | 0.0 | 14.5 | 0.00 | 0.00 | 0.00 | 42 | 1016.6 |
| 20260502222000 | 11 | 34 | 3.2 | 14.5 | 0.00 | 0.00 | 0.00 | 41 | 1016.6 |
| 20260502221900 | 11 | 9 | 0.0 | 14.5 | 0.00 | 0.00 | 0.00 | 41 | 1016.6 |
| 20260502221801 | 11 | 350 | 4.8 | 14.5 | 0.00 | 0.00 | 0.00 | 41 | 1016.7 |
| 20260502221701 | 11 | 324 | 4.8 | 14.5 | 0.00 | 0.00 | 0.00 | 42 | 1016.6 |
| 20260502221502 | 11 | 39 | 6.4 | 16.1 | 0.00 | 0.00 | 0.00 | 42 | 1016.5 |
| 20260502221401 | 11 | 320 | 0.0 | 16.1 | 0.00 | 0.00 | 0.00 | 43 | 1016.5 |
| 20260502221302 | 11 | 350 | 9.7 | 16.1 | 0.00 | 0.00 | 0.00 | 43 | 1016.5 |
| 20260502221201 | 11 | 16 | 8.0 | 16.1 | 0.00 | 0.00 | 0.00 | 43 | 1016.5 |
| 20260502221101 | 12 | 22 | 3.2 | 16.1 | 0.00 | 0.00 | 0.00 | 43 | 1016.5 |
| 20260502221001 | 12 | 5 | 3.2 | 16.1 | 0.00 | 0.00 | 0.00 | 43 | 1016.5 |
| 20260502220902 | 12 | 5 | 0.0 | 16.1 | 0.00 | 0.00 | 0.00 | 42 | 1016.5 |
| 20260502220802 | 11 | 346 | 3.2 | 16.1 | 0.00 | 0.00 | 0.00 | 43 | 1016.5 |
| 20260502220601 | 11 | 360 | 3.2 | 16.1 | 0.00 | 0.00 | 0.00 | 44 | 1016.3 |
| 20260502220502 | 11 | 304 | 0.0 | 16.1 | 0.00 | 0.00 | 0.00 | 43 | 1016.3 |
| 20260502220401 | 11 | 319 | 3.2 | 16.1 | 0.00 | 0.00 | 0.00 | 43 | 1016.3 |
| 20260502220302 | 11 | 290 | 1.6 | 16.1 | 0.00 | 0.00 | 0.00 | 42 | 1016.3 |
| 20260502220203 | 11 | 16 | 1.6 | 16.1 | 0.00 | 0.00 | 0.00 | 43 | 1016.4 |
| 20260502220001 | 12 | 343 | 0.0 | 16.1 | 0.00 | 0.00 | 0.00 | 42 | 1016.5 |
| 20260502215800 | 12 | 348 | 3.2 | 16.1 | 0.00 | 0.00 | 0.00 | 42 | 1016.5 |
| 20260502215700 | 12 | 61 | 4.8 | 12.9 | 0.00 | 0.00 | 0.00 | 41 | 1016.4 |
| 20260502215600 | 12 | 37 | 3.2 | 12.9 | 0.00 | 0.00 | 0.00 | 42 | 1016.5 |
| 20260502215501 | 12 | 10 | 1.6 | 12.9 | 0.00 | 0.00 | 0.00 | 42 | 1016.5 |
| 20260502215402 | 12 | 11 | 4.8 | 12.9 | 0.00 | 0.00 | 0.00 | 42 | 1016.5 |
| 20260502215300 | 12 | 5 | 1.6 | 12.9 | 0.00 | 0.00 | 0.00 | 42 | 1016.5 |
| 20260502215200 | 12 | 355 | 3.2 | 12.9 | 0.00 | 0.00 | 0.00 | 42 | 1016.5 |
| 20260502215100 | 12 | 355 | 3.2 | 12.9 | 0.00 | 0.00 | 0.00 | 42 | 1016.5 |
| 20260502214959 | 12 | 315 | 3.2 | 12.9 | 0.00 | 0.00 | 0.00 | 42 | 1016.4 |
| 20260502214859 | 12 | 13 | 8.0 | 8.0 | 0.00 | 0.00 | 0.00 | 43 | 1016.4 |
| 20260502214759 | 12 | 344 | 1.6 | 8.0 | 0.00 | 0.00 | 0.00 | 43 | 1016.4 |
| 20260502214559 | 12 | 36 | 4.8 | 14.5 | 0.00 | 0.00 | 0.00 | 41 | 1016.3 |
| 20260502214459 | 12 | 355 | 0.0 | 14.5 | 0.00 | 0.00 | 0.00 | 43 | 1016.3 |
| 20260502214401 | 12 | 347 | 0.0 | 14.5 | 0.00 | 0.00 | 0.00 | 43 | 1016.4 |
| 20260502214303 | 12 | 346 | 3.2 | 14.5 | 0.00 | 0.00 | 0.00 | 40 | 1016.4 |
| 20260502214000 | 12 | 341 | 1.6 | 14.5 | 0.00 | 0.00 | 0.00 | 42 | 1016.4 |
| 20260502213901 | 12 | 344 | 3.2 | 14.5 | 0.00 | 0.00 | 0.00 | 43 | 1016.4 |
| 20260502213800 | 12 | 319 | 6.4 | 14.5 | 0.00 | 0.00 | 0.00 | 42 | 1016.4 |
| 20260502213559 | 12 | 355 | 1.6 | 8.0 | 0.00 | 0.00 | 0.00 | 42 | 1016.3 |
| 20260502213500 | 12 | 350 | 1.6 | 8.0 | 0.00 | 0.00 | 0.00 | 41 | 1016.3 |
| 20260502213401 | 12 | 5 | 3.2 | 8.0 | 0.00 | 0.00 | 0.00 | 41 | 1016.3 |
| 20260502213201 | 12 | 20 | 1.6 | 8.0 | 0.00 | 0.00 | 0.00 | 41 | 1016.3 |
| 20260502213101 | 12 | 341 | 3.2 | 8.0 | 0.00 | 0.00 | 0.00 | 41 | 1016.3 |
| 20260502213000 | 12 | 340 | 6.4 | 8.0 | 0.00 | 0.00 | 0.00 | 41 | 1016.3 |
| 20260502212900 | 12 | 80 | 3.2 | 6.4 | 0.00 | 0.00 | 0.00 | 42 | 1016.3 |
| 20260502212800 | 12 | 11 | 1.6 | 6.4 | 0.00 | 0.00 | 0.00 | 42 | 1016.3 |
| 20260502212700 | 12 | 163 | 1.6 | 12.9 | 0.00 | 0.00 | 0.00 | 41 | 1016.4 |
| 20260502212600 | 12 | 355 | 1.6 | 12.9 | 0.00 | 0.00 | 0.00 | 42 | 1016.3 |
| 20260502212502 | 12 | 327 | 0.0 | 12.9 | 0.00 | 0.00 | 0.00 | 42 | 1016.3 |
| 20260502212402 | 12 | 140 | 0.0 | 12.9 | 0.00 | 0.00 | 0.00 | 42 | 1016.3 |
| 20260502212300 | 12 | 360 | 0.0 | 12.9 | 0.00 | 0.00 | 0.00 | 44 | 1016.4 |
| 20260502212200 | 12 | 360 | 0.0 | 12.9 | 0.00 | 0.00 | 0.00 | 44 | 1016.3 |
| 20260502212001 | 12 | 313 | 0.0 | 12.9 | 0.00 | 0.00 | 0.00 | 42 | 1016.2 |
| 20260502211900 | 12 | 324 | 0.0 | 12.9 | 0.00 | 0.00 | 0.00 | 41 | 1016.3 |
| 20260502211802 | 12 | 355 | 4.8 | 6.4 | 0.00 | 0.00 | 0.00 | 42 | 1016.3 |
| 20260502211700 | 11 | 338 | 0.0 | 6.4 | 0.00 | 0.00 | 0.00 | 43 | 1016.3 |
| 20260502211602 | 11 | 336 | 0.0 | 6.4 | 0.00 | 0.00 | 0.00 | 42 | 1016.4 |
| 20260502211501 | 12 | 340 | 1.6 | 14.5 | 0.00 | 0.00 | 0.00 | 43 | 1016.4 |
| 20260502211301 | 12 | 342 | 3.2 | 14.5 | 0.00 | 0.00 | 0.00 | 41 | 1016.3 |
| 20260502211000 | 12 | 338 | 3.2 | 14.5 | 0.00 | 0.00 | 0.00 | 41 | 1016.3 |
| 20260502210901 | 12 | 355 | 1.6 | 14.5 | 0.00 | 0.00 | 0.00 | 40 | 1016.3 |
| 20260502210800 | 12 | 333 | 1.6 | 14.5 | 0.00 | 0.00 | 0.00 | 39 | 1016.3 |
| 20260502210701 | 12 | 355 | 8.0 | 14.5 | 0.00 | 0.00 | 0.00 | 39 | 1016.2 |
| 20260502210559 | 12 | 350 | 3.2 | 12.9 | 0.00 | 0.00 | 0.00 | 39 | 1016.3 |
| 20260502210501 | 12 | 329 | 1.6 | 12.9 | 0.00 | 0.00 | 0.00 | 37 | 1016.2 |
| 20260502210400 | 12 | 23 | 4.8 | 12.9 | 0.00 | 0.00 | 0.00 | 38 | 1016.3 |
| 20260502210300 | 13 | 284 | 6.4 | 11.3 | 0.00 | 0.00 | 0.00 | 39 | 1016.3 |
| 20260502210201 | 13 | 334 | 1.6 | 8.0 | 0.00 | 0.00 | 0.00 | 38 | 1016.2 |
| 20260502210100 | 13 | 319 | 0.0 | 8.0 | 0.00 | 0.00 | 0.00 | 40 | 1016.2 |
| 20260502210002 | 13 | 5 | 1.6 | 8.0 | 0.00 | 0.00 | 0.00 | 39 | 1016.2 |
| 20260502205900 | 13 | 38 | 0.0 | 8.0 | 0.00 | 0.00 | 0.00 | 39 | 1016.2 |
| 20260502205800 | 13 | 327 | 1.6 | 8.0 | 0.00 | 0.00 | 0.00 | 41 | 1016.2 |
| 20260502205701 | 13 | 308 | 1.6 | 8.0 | 0.00 | 0.00 | 0.00 | 40 | 1016.3 |
| 20260502205600 | 13 | 11 | 1.6 | 8.0 | 0.00 | 0.00 | 0.00 | 39 | 1016.2 |
| 20260502205500 | 13 | 355 | 3.2 | 8.0 | 0.00 | 0.00 | 0.00 | 40 | 1016.2 |
| 20260502205401 | 13 | 278 | 0.0 | 9.7 | 0.00 | 0.00 | 0.00 | 42 | 1016.2 |
| 20260502205259 | 13 | 343 | 3.2 | 9.7 | 0.00 | 0.00 | 0.00 | 43 | 1016.1 |
| 20260502205101 | 13 | 351 | 0.0 | 9.7 | 0.00 | 0.00 | 0.00 | 43 | 1016.2 |
| 20260502205003 | 13 | 274 | 1.6 | 9.7 | 0.00 | 0.00 | 0.00 | 41 | 1016.2 |
| 20260502204901 | 13 | 355 | 0.0 | 9.7 | 0.00 | 0.00 | 0.00 | 40 | 1016.2 |
| 20260502204700 | 13 | 5 | 4.8 | 9.7 | 0.00 | 0.00 | 0.00 | 38 | 1016.3 |
| 20260502204600 | 13 | 5 | 4.8 | 6.4 | 0.00 | 0.00 | 0.00 | 40 | 1016.3 |
| 20260502204500 | 13 | 355 | 4.8 | 6.4 | 0.00 | 0.00 | 0.00 | 40 | 1016.3 |
| 20260502204400 | 13 | 5 | 1.6 | 8.0 | 0.00 | 0.00 | 0.00 | 40 | 1016.3 |
| 20260502204303 | 13 | 328 | 0.0 | 8.0 | 0.00 | 0.00 | 0.00 | 39 | 1016.3 |
| 20260502204200 | 13 | 258 | 0.0 | 8.0 | 0.00 | 0.00 | 0.00 | 40 | 1016.3 |
| 20260502204100 | 13 | 201 | 1.6 | 8.0 | 0.00 | 0.00 | 0.00 | 41 | 1016.3 |
| 20260502204002 | 13 | 205 | 1.6 | 9.7 | 0.00 | 0.00 | 0.00 | 40 | 1016.3 |
| 20260502203900 | 13 | 217 | 0.0 | 9.7 | 0.00 | 0.00 | 0.00 | 41 | 1016.3 |
| 20260502203800 | 13 | 335 | 3.2 | 12.9 | 0.00 | 0.00 | 0.00 | 39 | 1016.3 |
| 20260502203600 | 13 | 340 | 3.2 | 12.9 | 0.00 | 0.00 | 0.00 | 38 | 1016.4 |
| 20260502203501 | 13 | 360 | 3.2 | 12.9 | 0.00 | 0.00 | 0.00 | 39 | 1016.4 |
| 20260502203400 | 13 | 327 | 1.6 | 12.9 | 0.00 | 0.00 | 0.00 | 38 | 1016.3 |
| 20260502203259 | 13 | 342 | 1.6 | 12.9 | 0.00 | 0.00 | 0.00 | 39 | 1016.2 |
| 20260502203201 | 13 | 311 | 3.2 | 12.9 | 0.00 | 0.00 | 0.00 | 40 | 1016.2 |
| 20260502203000 | 14 | 322 | 1.6 | 12.9 | 0.00 | 0.00 | 0.00 | 38 | 1016.3 |
| 20260502202759 | 14 | 325 | 4.8 | 12.9 | 0.00 | 0.00 | 0.00 | 38 | 1016.3 |
| 20260502202703 | 14 | 322 | 0.0 | 12.9 | 0.00 | 0.00 | 0.00 | 42 | 1016.3 |
| 20260502202500 | 13 | 24 | 8.0 | 9.7 | 0.00 | 0.00 | 0.00 | 40 | 1016.4 |
| 20260502202304 | 13 | 324 | 0.0 | 9.7 | 0.00 | 0.00 | 0.00 | 42 | 1016.3 |
| 20260502202201 | 13 | 51 | 0.0 | 9.7 | 0.00 | 0.00 | 0.00 | 42 | 1016.3 |
| 20260502202101 | 13 | 227 | 1.6 | 8.0 | 0.00 | 0.00 | 0.00 | 40 | 1016.3 |
| 20260502202001 | 13 | 185 | 4.8 | 8.0 | 0.00 | 0.00 | 0.00 | 39 | 1016.3 |
| 20260502201902 | 13 | 205 | 4.8 | 8.0 | 0.00 | 0.00 | 0.00 | 42 | 1016.3 |
| 20260502201800 | 13 | 318 | 1.6 | 8.0 | 0.00 | 0.00 | 0.00 | 45 | 1016.4 |
| 20260502201659 | 13 | 338 | 4.8 | 8.0 | 0.00 | 0.00 | 0.00 | 43 | 1016.4 |
| 20260502201600 | 13 | 302 | 1.6 | 6.4 | 0.00 | 0.00 | 0.00 | 46 | 1016.4 |
| 20260502201500 | 13 | 348 | 3.2 | 6.4 | 0.00 | 0.00 | 0.00 | 45 | 1016.4 |
| 20260502201400 | 13 | 9 | 0.0 | 9.7 | 0.00 | 0.00 | 0.00 | 42 | 1016.3 |
| 20260502201301 | 12 | 29 | 1.6 | 9.7 | 0.00 | 0.00 | 0.00 | 42 | 1016.3 |
| 20260502201200 | 12 | 333 | 3.2 | 9.7 | 0.00 | 0.00 | 0.00 | 41 | 1016.4 |
| 20260502201001 | 12 | 22 | 0.0 | 17.7 | 0.00 | 0.00 | 0.00 | 40 | 1016.4 |
| 20260502200901 | 12 | 294 | 0.0 | 17.7 | 0.00 | 0.00 | 0.00 | 38 | 1016.4 |
| 20260502200759 | 13 | 279 | 0.0 | 17.7 | 0.00 | 0.00 | 0.00 | 38 | 1016.4 |
| 20260502200702 | 13 | 38 | 0.0 | 17.7 | 0.00 | 0.00 | 0.00 | 39 | 1016.4 |